Wetterdaten: Montag, 16.06.2014
Datum Zeit Temp. Aussen +5cm Feuchte Auss Luftdruck Regen Sonnenschein Regendauer UV Solar Windben
16.06.2014 00:00 15,1 C 13,9 C 81 % 1023,3 hPa 0,0 l/m 0 min 0 min 0,0 UV-I 0 W/m 16,7 km/h (3 Bft)
16.06.2014 00:02 15,1 C 13,9 C 81 % 1023,3 hPa 0,0 l/m 0 min 0 min 0,0 UV-I 0 W/m 16,7 km/h (3 Bft)
16.06.2014 00:06 14,9 C 13,3 C 81 % 1023,3 hPa 0,0 l/m 0 min 0 min 0,0 UV-I 0 W/m 16,7 km/h (3 Bft)
16.06.2014 00:08 14,9 C 13,3 C 81 % 1023,3 hPa 0,0 l/m 0 min 0 min 0,0 UV-I 0 W/m 14,6 km/h (3 Bft)
16.06.2014 00:10 14,9 C 13,3 C 81 % 1023,3 hPa 0,0 l/m 0 min 0 min 0,0 UV-I 0 W/m 14,6 km/h (3 Bft)
16.06.2014 00:12 14,9 C 13,3 C 81 % 1023,3 hPa 0,0 l/m 0 min 0 min 0,0 UV-I 0 W/m 18,8 km/h (3 Bft)
16.06.2014 00:14 14,8 C 13,3 C 81 % 1023,4 hPa 0,0 l/m 0 min 0 min 0,0 UV-I 0 W/m 16,7 km/h (3 Bft)
16.06.2014 00:16 14,8 C 13,3 C 81 % 1023,4 hPa 0,0 l/m 0 min 0 min 0,0 UV-I 0 W/m 14,6 km/h (3 Bft)
16.06.2014 00:18 14,8 C 13,3 C 81 % 1023,4 hPa 0,0 l/m 0 min 0 min 0,0 UV-I 0 W/m 18,8 km/h (3 Bft)
16.06.2014 00:20 14,8 C 13,3 C 81 % 1023,4 hPa 0,0 l/m 0 min 0 min 0,0 UV-I 0 W/m 25,1 km/h (4 Bft)
16.06.2014 00:22 14,7 C 13,3 C 81 % 1023,4 hPa 0,0 l/m 0 min 0 min 0,0 UV-I 0 W/m 18,8 km/h (3 Bft)
16.06.2014 00:24 14,7 C 13,3 C 81 % 1023,4 hPa 0,0 l/m 0 min 0 min 0,0 UV-I 0 W/m 20,9 km/h (4 Bft)
16.06.2014 00:26 14,7 C 13,3 C 81 % 1023,5 hPa 0,0 l/m 0 min 0 min 0,0 UV-I 0 W/m 14,6 km/h (3 Bft)
16.06.2014 00:28 14,6 C 13,3 C 81 % 1023,4 hPa 0,0 l/m 0 min 0 min 0,0 UV-I 0 W/m 14,6 km/h (3 Bft)
16.06.2014 00:30 14,6 C 13,3 C 82 % 1023,5 hPa 0,0 l/m 0 min 0 min 0,0 UV-I 0 W/m 12,6 km/h (3 Bft)
16.06.2014 00:32 14,5 C 13,3 C 82 % 1023,5 hPa 0,0 l/m 0 min 0 min 0,0 UV-I 0 W/m 16,7 km/h (3 Bft)
16.06.2014 00:34 14,4 C 13,3 C 82 % 1023,5 hPa 0,0 l/m 0 min 0 min 0,0 UV-I 0 W/m 14,6 km/h (3 Bft)
16.06.2014 00:36 14,4 C 13,3 C 82 % 1023,6 hPa 0,0 l/m 0 min 0 min 0,0 UV-I 0 W/m 23,0 km/h (4 Bft)
16.06.2014 00:38 14,4 C 13,3 C 82 % 1023,5 hPa 0,0 l/m 0 min 0 min 0,0 UV-I 0 W/m 16,7 km/h (3 Bft)
16.06.2014 00:40 14,4 C 12,8 C 82 % 1023,6 hPa 0,0 l/m 0 min 0 min 0,0 UV-I 0 W/m 14,6 km/h (3 Bft)
16.06.2014 00:42 14,3 C 12,8 C 82 % 1023,5 hPa 0,0 l/m 0 min 0 min 0,0 UV-I 0 W/m 16,7 km/h (3 Bft)
16.06.2014 00:44 14,3 C 12,8 C 82 % 1023,5 hPa 0,0 l/m 0 min 0 min 0,0 UV-I 0 W/m 14,6 km/h (3 Bft)
16.06.2014 00:46 14,2 C 12,8 C 82 % 1023,5 hPa 0,0 l/m 0 min 0 min 0,0 UV-I 0 W/m 12,6 km/h (3 Bft)
16.06.2014 00:48 14,2 C 12,8 C 82 % 1023,5 hPa 0,0 l/m 0 min 0 min 0,0 UV-I 0 W/m 16,7 km/h (3 Bft)
16.06.2014 00:50 14,2 C 12,8 C 82 % 1023,5 hPa 0,0 l/m 0 min 0 min 0,0 UV-I 0 W/m 16,7 km/h (3 Bft)
16.06.2014 00:52 14,2 C 12,8 C 82 % 1023,5 hPa 0,0 l/m 0 min 0 min 0,0 UV-I 0 W/m 18,8 km/h (3 Bft)
16.06.2014 00:54 14,2 C 12,8 C 83 % 1023,6 hPa 0,0 l/m 0 min 0 min 0,0 UV-I 0 W/m 16,7 km/h (3 Bft)
16.06.2014 00:56 14,2 C 12,8 C 83 % 1023,6 hPa 0,0 l/m 0 min 0 min 0,0 UV-I 0 W/m 12,6 km/h (3 Bft)
16.06.2014 00:58 14,2 C 12,8 C 83 % 1023,5 hPa 0,0 l/m 0 min 0 min 0,0 UV-I 0 W/m 14,6 km/h (3 Bft)
16.06.2014 01:00 14,2 C 12,8 C 83 % 1023,5 hPa 0,0 l/m 0 min 0 min 0,0 UV-I 0 W/m 12,6 km/h (3 Bft)
16.06.2014 01:02 14,1 C 12,8 C 83 % 1023,5 hPa 0,0 l/m 0 min 0 min 0,0 UV-I 0 W/m 16,7 km/h (3 Bft)
16.06.2014 01:04 14,0 C 12,8 C 83 % 1023,5 hPa 0,0 l/m 0 min 0 min 0,0 UV-I 0 W/m 18,8 km/h (3 Bft)
16.06.2014 01:06 14,0 C 12,8 C 83 % 1023,5 hPa 0,0 l/m 0 min 0 min 0,0 UV-I 0 W/m 16,7 km/h (3 Bft)
16.06.2014 01:08 14,0 C 12,8 C 83 % 1023,5 hPa 0,0 l/m 0 min 0 min 0,0 UV-I 0 W/m 14,6 km/h (3 Bft)
16.06.2014 01:10 13,9 C 12,8 C 83 % 1023,5 hPa 0,0 l/m 0 min 0 min 0,0 UV-I 0 W/m 12,6 km/h (3 Bft)
16.06.2014 01:12 13,9 C 12,8 C 83 % 1023,5 hPa 0,0 l/m 0 min 0 min 0,0 UV-I 0 W/m 16,7 km/h (3 Bft)
16.06.2014 01:14 13,9 C 12,8 C 83 % 1023,5 hPa 0,0 l/m 0 min 0 min 0,0 UV-I 0 W/m 23,0 km/h (4 Bft)
16.06.2014 01:16 13,9 C 12,8 C 83 % 1023,5 hPa 0,0 l/m 0 min 0 min 0,0 UV-I 0 W/m 14,6 km/h (3 Bft)
16.06.2014 01:18 13,8 C 12,8 C 83 % 1023,5 hPa 0,0 l/m 0 min 0 min 0,0 UV-I 0 W/m 18,8 km/h (3 Bft)
16.06.2014 01:20 13,8 C 12,8 C 83 % 1023,5 hPa 0,0 l/m 0 min 0 min 0,0 UV-I 0 W/m 14,6 km/h (3 Bft)
16.06.2014 01:22 13,7 C 12,2 C 83 % 1023,4 hPa 0,0 l/m 0 min 0 min 0,0 UV-I 0 W/m 16,7 km/h (3 Bft)
16.06.2014 01:24 13,7 C 12,2 C 83 % 1023,5 hPa 0,0 l/m 0 min 0 min 0,0 UV-I 0 W/m 16,7 km/h (3 Bft)
16.06.2014 01:26 13,7 C 12,2 C 84 % 1023,5 hPa 0,0 l/m 0 min 0 min 0,0 UV-I 0 W/m 12,6 km/h (3 Bft)
16.06.2014 01:28 13,6 C 12,2 C 84 % 1023,5 hPa 0,0 l/m 0 min 0 min 0,0 UV-I 0 W/m 12,6 km/h (3 Bft)
16.06.2014 01:30 13,6 C 12,2 C 84 % 1023,4 hPa 0,0 l/m 0 min 0 min 0,0 UV-I 0 W/m 14,6 km/h (3 Bft)
16.06.2014 01:32 13,6 C 12,2 C 84 % 1023,4 hPa 0,0 l/m 0 min 0 min 0,0 UV-I 0 W/m 10,5 km/h (2 Bft)
16.06.2014 01:34 13,5 C 12,2 C 84 % 1023,4 hPa 0,0 l/m 0 min 0 min 0,0 UV-I 0 W/m 14,6 km/h (3 Bft)
16.06.2014 01:36 13,4 C 12,2 C 84 % 1023,4 hPa 0,0 l/m 0 min 0 min 0,0 UV-I 0 W/m 6,3 km/h (2 Bft)
16.06.2014 01:38 13,4 C 12,2 C 84 % 1023,4 hPa 0,0 l/m 0 min 0 min 0,0 UV-I 0 W/m 12,6 km/h (3 Bft)
16.06.2014 01:40 13,4 C 12,2 C 85 % 1023,4 hPa 0,0 l/m 0 min 0 min 0,0 UV-I 0 W/m 12,6 km/h (3 Bft)
16.06.2014 01:42 13,3 C 12,2 C 85 % 1023,4 hPa 0,0 l/m 0 min 0 min 0,0 UV-I 0 W/m 12,6 km/h (3 Bft)
16.06.2014 01:44 13,3 C 12,2 C 85 % 1023,5 hPa 0,0 l/m 0 min 0 min 0,0 UV-I 0 W/m 16,7 km/h (3 Bft)
16.06.2014 01:46 13,3 C 12,2 C 85 % 1023,4 hPa 0,0 l/m 0 min 0 min 0,0 UV-I 0 W/m 14,6 km/h (3 Bft)
16.06.2014 01:48 13,2 C 12,2 C 85 % 1023,4 hPa 0,0 l/m 0 min 0 min 0,0 UV-I 0 W/m 10,5 km/h (2 Bft)
16.06.2014 01:50 13,2 C 12,2 C 85 % 1023,6 hPa 0,0 l/m 0 min 0 min 0,0 UV-I 0 W/m 12,6 km/h (3 Bft)
16.06.2014 01:52 13,2 C 12,2 C 85 % 1023,5 hPa 0,0 l/m 0 min 0 min 0,0 UV-I 0 W/m 10,5 km/h (2 Bft)
16.06.2014 01:54 13,2 C 12,2 C 86 % 1023,6 hPa 0,0 l/m 0 min 0 min 0,0 UV-I 0 W/m 8,4 km/h (2 Bft)
16.06.2014 01:56 13,1 C 11,7 C 86 % 1023,6 hPa 0,0 l/m 0 min 0 min 0,0 UV-I 0 W/m 10,5 km/h (2 Bft)
16.06.2014 01:58 13,1 C 11,7 C 86 % 1023,5 hPa 0,0 l/m 0 min 0 min 0,0 UV-I 0 W/m 12,6 km/h (3 Bft)
16.06.2014 02:00 13,1 C 11,7 C 86 % 1023,5 hPa 0,0 l/m 0 min 0 min 0,0 UV-I 0 W/m 8,4 km/h (2 Bft)
16.06.2014 02:02 13,0 C 11,7 C 86 % 1023,5 hPa 0,0 l/m 0 min 0 min 0,0 UV-I 0 W/m 12,6 km/h (3 Bft)
16.06.2014 02:04 13,0 C 11,7 C 86 % 1023,5 hPa 0,0 l/m 0 min 0 min 0,0 UV-I 0 W/m 10,5 km/h (2 Bft)
16.06.2014 02:06 13,0 C 11,7 C 86 % 1023,5 hPa 0,0 l/m 0 min 0 min 0,0 UV-I 0 W/m 12,6 km/h (3 Bft)
16.06.2014 02:08 12,9 C 11,7 C 86 % 1023,5 hPa 0,0 l/m 0 min 0 min 0,0 UV-I 0 W/m 14,6 km/h (3 Bft)
16.06.2014 02:10 12,9 C 11,7 C 86 % 1023,5 hPa 0,0 l/m 0 min 0 min 0,0 UV-I 0 W/m 16,7 km/h (3 Bft)
16.06.2014 02:12 12,9 C 11,7 C 86 % 1023,5 hPa 0,0 l/m 0 min 0 min 0,0 UV-I 0 W/m 18,8 km/h (3 Bft)
16.06.2014 02:14 12,9 C 11,7 C 86 % 1023,5 hPa 0,0 l/m 0 min 0 min 0,0 UV-I 0 W/m 12,6 km/h (3 Bft)
16.06.2014 02:16 12,9 C 11,7 C 86 % 1023,5 hPa 0,0 l/m 0 min 0 min 0,0 UV-I 0 W/m 12,6 km/h (3 Bft)
16.06.2014 02:18 12,8 C 11,7 C 86 % 1023,5 hPa 0,0 l/m 0 min 0 min 0,0 UV-I 0 W/m 14,6 km/h (3 Bft)
16.06.2014 02:20 12,8 C 11,7 C 86 % 1023,5 hPa 0,0 l/m 0 min 0 min 0,0 UV-I 0 W/m 12,6 km/h (3 Bft)
16.06.2014 02:22 12,8 C 11,7 C 86 % 1023,5 hPa 0,0 l/m 0 min 0 min 0,0 UV-I 0 W/m 12,6 km/h (3 Bft)
16.06.2014 02:24 12,7 C 11,7 C 86 % 1023,5 hPa 0,0 l/m 0 min 0 min 0,0 UV-I 0 W/m 14,6 km/h (3 Bft)
16.06.2014 02:26 12,7 C 11,7 C 86 % 1023,5 hPa 0,0 l/m 0 min 0 min 0,0 UV-I 0 W/m 12,6 km/h (3 Bft)
16.06.2014 02:28 12,7 C 11,7 C 87 % 1023,5 hPa 0,0 l/m 0 min 0 min 0,0 UV-I 0 W/m 8,4 km/h (2 Bft)
16.06.2014 02:30 12,6 C 11,7 C 87 % 1023,5 hPa 0,0 l/m 0 min 0 min 0,0 UV-I 0 W/m 6,3 km/h (2 Bft)
16.06.2014 02:32 12,6 C 11,1 C 87 % 1023,6 hPa 0,0 l/m 0 min 0 min 0,0 UV-I 0 W/m 8,4 km/h (2 Bft)
16.06.2014 02:34 12,5 C 11,7 C 87 % 1023,5 hPa 0,0 l/m 0 min 0 min 0,0 UV-I 0 W/m 6,3 km/h (2 Bft)
16.06.2014 02:36 12,5 C 11,1 C 87 % 1023,6 hPa 0,0 l/m 0 min 0 min 0,0 UV-I 0 W/m 10,5 km/h (2 Bft)
16.06.2014 02:38 12,4 C 11,1 C 87 % 1023,6 hPa 0,0 l/m 0 min 0 min 0,0 UV-I 0 W/m 8,4 km/h (2 Bft)
16.06.2014 02:40 12,4 C 11,1 C 87 % 1023,6 hPa 0,0 l/m 0 min 0 min 0,0 UV-I 0 W/m 8,4 km/h (2 Bft)
16.06.2014 02:42 12,4 C 11,1 C 87 % 1023,6 hPa 0,0 l/m 0 min 0 min 0,0 UV-I 0 W/m 8,4 km/h (2 Bft)
16.06.2014 02:44 12,4 C 11,1 C 88 % 1023,5 hPa 0,0 l/m 0 min 0 min 0,0 UV-I 0 W/m 0,0 km/h (0 Bft)
16.06.2014 02:46 12,4 C 11,1 C 88 % 1023,5 hPa 0,0 l/m 0 min 0 min 0,0 UV-I 0 W/m 8,4 km/h (2 Bft)
16.06.2014 02:48 12,3 C 11,1 C 88 % 1023,5 hPa 0,0 l/m 0 min 0 min 0,0 UV-I 0 W/m 10,5 km/h (2 Bft)
16.06.2014 02:50 12,3 C 11,1 C 88 % 1023,5 hPa 0,0 l/m 0 min 0 min 0,0 UV-I 0 W/m 10,5 km/h (2 Bft)
16.06.2014 02:52 12,2 C 11,1 C 88 % 1023,5 hPa 0,0 l/m 0 min 0 min 0,0 UV-I 0 W/m 8,4 km/h (2 Bft)
16.06.2014 02:54 12,2 C 11,1 C 88 % 1023,5 hPa 0,0 l/m 0 min 0 min 0,0 UV-I 0 W/m 8,4 km/h (2 Bft)
16.06.2014 02:56 12,2 C 11,1 C 88 % 1023,6 hPa 0,0 l/m 0 min 0 min 0,0 UV-I 0 W/m 10,5 km/h (2 Bft)
16.06.2014 02:58 12,2 C 11,1 C 88 % 1023,5 hPa 0,0 l/m 0 min 0 min 0,0 UV-I 0 W/m 12,6 km/h (3 Bft)
16.06.2014 03:00 12,1 C 11,1 C 88 % 1023,5 hPa 0,0 l/m 0 min 0 min 0,0 UV-I 0 W/m 10,5 km/h (2 Bft)
16.06.2014 03:02 12,1 C 11,1 C 89 % 1023,6 hPa 0,0 l/m 0 min 0 min 0,0 UV-I 0 W/m 8,4 km/h (2 Bft)
16.06.2014 03:04 12,1 C 11,1 C 89 % 1023,6 hPa 0,0 l/m 0 min 0 min 0,0 UV-I 0 W/m 14,6 km/h (3 Bft)
16.06.2014 03:06 12,1 C 11,1 C 89 % 1023,6 hPa 0,0 l/m 0 min 0 min 0,0 UV-I 0 W/m 12,6 km/h (3 Bft)
16.06.2014 03:08 12,0 C 10,6 C 89 % 1023,6 hPa 0,0 l/m 0 min 0 min 0,0 UV-I 0 W/m 10,5 km/h (2 Bft)
16.06.2014 03:10 11,9 C 10,6 C 89 % 1023,6 hPa 0,0 l/m 0 min 0 min 0,0 UV-I 0 W/m 10,5 km/h (2 Bft)
16.06.2014 03:12 11,9 C 10,6 C 89 % 1023,6 hPa 0,0 l/m 0 min 0 min 0,0 UV-I 0 W/m 8,4 km/h (2 Bft)
16.06.2014 03:14 11,9 C 10,6 C 89 % 1023,6 hPa 0,0 l/m 0 min 0 min 0,0 UV-I 0 W/m 12,6 km/h (3 Bft)
16.06.2014 03:16 11,9 C 10,6 C 89 % 1023,5 hPa 0,0 l/m 0 min 0 min 0,0 UV-I 0 W/m 10,5 km/h (2 Bft)
16.06.2014 03:18 11,8 C 10,6 C 89 % 1023,5 hPa 0,0 l/m 0 min 0 min 0,0 UV-I 0 W/m 10,5 km/h (2 Bft)
16.06.2014 03:20 11,8 C 10,6 C 90 % 1023,4 hPa 0,0 l/m 0 min 0 min 0,0 UV-I 0 W/m 10,5 km/h (2 Bft)
16.06.2014 03:22 11,8 C 10,6 C 90 % 1023,5 hPa 0,0 l/m 0 min 0 min 0,0 UV-I 0 W/m 10,5 km/h (2 Bft)
16.06.2014 03:24 11,7 C 10,6 C 90 % 1023,5 hPa 0,0 l/m 0 min 0 min 0,0 UV-I 0 W/m 8,4 km/h (2 Bft)
16.06.2014 03:26 11,7 C 10,6 C 90 % 1023,4 hPa 0,0 l/m 0 min 0 min 0,0 UV-I 0 W/m 8,4 km/h (2 Bft)
16.06.2014 03:28 11,7 C 10,6 C 90 % 1023,4 hPa 0,0 l/m 0 min 0 min 0,0 UV-I 0 W/m 14,6 km/h (3 Bft)
16.06.2014 03:30 11,6 C 10,6 C 90 % 1023,4 hPa 0,0 l/m 0 min 0 min 0,0 UV-I 0 W/m 14,6 km/h (3 Bft)
16.06.2014 03:32 11,6 C 10,6 C 90 % 1023,4 hPa 0,0 l/m 0 min 0 min 0,0 UV-I 0 W/m 12,6 km/h (3 Bft)
16.06.2014 03:34 11,6 C 10,6 C 90 % 1023,4 hPa 0,0 l/m 0 min 0 min 0,0 UV-I 0 W/m 12,6 km/h (3 Bft)
16.06.2014 03:36 11,6 C 10,6 C 90 % 1023,4 hPa 0,0 l/m 0 min 0 min 0,0 UV-I 0 W/m 8,4 km/h (2 Bft)
16.06.2014 03:38 11,6 C 10,6 C 90 % 1023,4 hPa 0,0 l/m 0 min 0 min 0,0 UV-I 0 W/m 14,6 km/h (3 Bft)
16.06.2014 03:40 11,5 C 10,6 C 90 % 1023,4 hPa 0,0 l/m 0 min 0 min 0,0 UV-I 0 W/m 10,5 km/h (2 Bft)
16.06.2014 03:42 11,5 C 10,6 C 90 % 1023,4 hPa 0,0 l/m 0 min 0 min 0,0 UV-I 0 W/m 10,5 km/h (2 Bft)
16.06.2014 03:44 11,4 C 10,6 C 90 % 1023,4 hPa 0,0 l/m 0 min 0 min 0,0 UV-I 0 W/m 12,6 km/h (3 Bft)
16.06.2014 03:46 11,4 C 10,6 C 90 % 1023,3 hPa 0,0 l/m 0 min 0 min 0,0 UV-I 0 W/m 10,5 km/h (2 Bft)
16.06.2014 03:48 11,4 C 10,6 C 90 % 1023,4 hPa 0,0 l/m 0 min 0 min 0,0 UV-I 0 W/m 12,6 km/h (3 Bft)
16.06.2014 03:50 11,3 C 10,0 C 90 % 1023,4 hPa 0,0 l/m 0 min 0 min 0,0 UV-I 0 W/m 10,5 km/h (2 Bft)
16.06.2014 03:52 11,3 C 10,0 C 90 % 1023,3 hPa 0,0 l/m 0 min 0 min 0,0 UV-I 0 W/m 8,4 km/h (2 Bft)
16.06.2014 03:54 11,3 C 10,0 C 90 % 1023,3 hPa 0,0 l/m 0 min 0 min 0,0 UV-I 0 W/m 8,4 km/h (2 Bft)
16.06.2014 03:56 11,2 C 10,0 C 90 % 1023,4 hPa 0,0 l/m 0 min 0 min 0,0 UV-I 0 W/m 8,4 km/h (2 Bft)
16.06.2014 03:58 11,2 C 10,0 C 90 % 1023,3 hPa 0,0 l/m 0 min 0 min 0,0 UV-I 0 W/m 8,4 km/h (2 Bft)
16.06.2014 04:00 11,1 C 10,0 C 90 % 1023,3 hPa 0,0 l/m 0 min 0 min 0,0 UV-I 0 W/m 10,5 km/h (2 Bft)
16.06.2014 04:02 11,1 C 10,0 C 91 % 1023,3 hPa 0,0 l/m 0 min 0 min 0,0 UV-I 0 W/m 8,4 km/h (2 Bft)
16.06.2014 04:04 11,1 C 10,0 C 91 % 1023,4 hPa 0,0 l/m 0 min 0 min 0,0 UV-I 0 W/m 6,3 km/h (2 Bft)
16.06.2014 04:06 11,1 C 10,0 C 91 % 1023,5 hPa 0,0 l/m 0 min 0 min 0,0 UV-I 0 W/m 8,4 km/h (2 Bft)
16.06.2014 04:08 11,0 C 10,0 C 91 % 1023,4 hPa 0,0 l/m 0 min 0 min 0,0 UV-I 0 W/m 8,4 km/h (2 Bft)
16.06.2014 04:10 10,9 C 10,0 C 91 % 1023,4 hPa 0,0 l/m 0 min 0 min 0,0 UV-I 0 W/m 10,5 km/h (2 Bft)
16.06.2014 04:12 10,9 C 10,0 C 91 % 1023,4 hPa 0,0 l/m 0 min 0 min 0,0 UV-I 0 W/m 8,4 km/h (2 Bft)
16.06.2014 04:14 10,9 C 10,0 C 91 % 1023,4 hPa 0,0 l/m 0 min 0 min 0,0 UV-I 0 W/m 12,6 km/h (3 Bft)
16.06.2014 04:16 10,9 C 10,0 C 91 % 1023,4 hPa 0,0 l/m 0 min 0 min 0,0 UV-I 0 W/m 10,5 km/h (2 Bft)
16.06.2014 04:18 10,9 C 10,0 C 91 % 1023,4 hPa 0,0 l/m 0 min 0 min 0,0 UV-I 0 W/m 8,4 km/h (2 Bft)
16.06.2014 04:20 10,8 C 10,0 C 91 % 1023,4 hPa 0,0 l/m 0 min 0 min 0,0 UV-I 0 W/m 8,4 km/h (2 Bft)
16.06.2014 04:22 10,8 C 10,0 C 91 % 1023,4 hPa 0,0 l/m 0 min 0 min 0,0 UV-I 0 W/m 10,5 km/h (2 Bft)
16.06.2014 04:24 10,8 C 10,0 C 91 % 1023,4 hPa 0,0 l/m 0 min 0 min 0,0 UV-I 0 W/m 10,5 km/h (2 Bft)
16.06.2014 04:26 10,8 C 9,4 C 91 % 1023,4 hPa 0,0 l/m 0 min 0 min 0,0 UV-I 0 W/m 10,5 km/h (2 Bft)
16.06.2014 04:28 10,8 C 9,4 C 91 % 1023,4 hPa 0,0 l/m 0 min 0 min 0,0 UV-I 0 W/m 10,5 km/h (2 Bft)
16.06.2014 04:30 10,7 C 9,4 C 91 % 1023,3 hPa 0,0 l/m 0 min 0 min 0,0 UV-I 0 W/m 8,4 km/h (2 Bft)
16.06.2014 04:32 10,7 C 9,4 C 91 % 1023,3 hPa 0,0 l/m 0 min 0 min 0,0 UV-I 0 W/m 10,5 km/h (2 Bft)
16.06.2014 04:34 10,7 C 9,4 C 91 % 1023,2 hPa 0,0 l/m 0 min 0 min 0,0 UV-I 0 W/m 8,4 km/h (2 Bft)
16.06.2014 04:36 10,7 C 9,4 C 91 % 1023,2 hPa 0,0 l/m 0 min 0 min 0,0 UV-I 0 W/m 6,3 km/h (2 Bft)
16.06.2014 04:38 10,6 C 9,4 C 91 % 1023,2 hPa 0,0 l/m 0 min 0 min 0,0 UV-I 0 W/m 8,4 km/h (2 Bft)
16.06.2014 04:40 10,6 C 9,4 C 91 % 1023,2 hPa 0,0 l/m 0 min 0 min 0,0 UV-I 0 W/m 0,0 km/h (0 Bft)
16.06.2014 04:42 10,6 C 9,4 C 91 % 1023,2 hPa 0,0 l/m 0 min 0 min 0,0 UV-I 0 W/m 0,0 km/h (0 Bft)
16.06.2014 04:44 10,6 C 9,4 C 91 % 1023,2 hPa 0,0 l/m 0 min 0 min 0,0 UV-I 0 W/m 6,3 km/h (2 Bft)
16.06.2014 04:46 10,5 C 9,4 C 91 % 1023,3 hPa 0,0 l/m 0 min 0 min 0,0 UV-I 0 W/m 0,0 km/h (0 Bft)
16.06.2014 04:48 10,4 C 9,4 C 91 % 1023,2 hPa 0,0 l/m 0 min 0 min 0,0 UV-I 0 W/m 4,2 km/h (1 Bft)
16.06.2014 04:50 10,4 C 9,4 C 91 % 1023,2 hPa 0,0 l/m 0 min 0 min 0,0 UV-I 0 W/m 8,4 km/h (2 Bft)
16.06.2014 04:52 10,4 C 9,4 C 91 % 1023,2 hPa 0,0 l/m 0 min 0 min 0,0 UV-I 0 W/m 2,1 km/h (1 Bft)
16.06.2014 04:54 10,3 C 9,4 C 91 % 1023,2 hPa 0,0 l/m 0 min 0 min 0,0 UV-I 0 W/m 2,1 km/h (1 Bft)
16.06.2014 04:56 10,3 C 9,4 C 92 % 1023,2 hPa 0,0 l/m 0 min 0 min 0,0 UV-I 0 W/m 0,0 km/h (0 Bft)
16.06.2014 04:58 10,3 C 9,4 C 92 % 1023,2 hPa 0,0 l/m 0 min 0 min 0,0 UV-I 0 W/m 6,3 km/h (2 Bft)
16.06.2014 05:00 10,3 C 9,4 C 92 % 1023,2 hPa 0,0 l/m 0 min 0 min 0,0 UV-I 0 W/m 10,5 km/h (2 Bft)
16.06.2014 05:02 10,3 C 9,4 C 92 % 1023,2 hPa 0,0 l/m 0 min 0 min 0,0 UV-I 0 W/m 8,4 km/h (2 Bft)
16.06.2014 05:04 10,2 C 9,4 C 92 % 1023,2 hPa 0,0 l/m 0 min 0 min 0,0 UV-I 0 W/m 0,0 km/h (0 Bft)
16.06.2014 05:06 10,2 C 9,4 C 92 % 1023,2 hPa 0,0 l/m 0 min 0 min 0,0 UV-I 0 W/m 2,1 km/h (1 Bft)
16.06.2014 05:08 10,2 C 9,4 C 92 % 1023,2 hPa 0,0 l/m 0 min 0 min 0,0 UV-I 0 W/m 0,0 km/h (0 Bft)
16.06.2014 05:10 10,2 C 8,9 C 92 % 1023,2 hPa 0,0 l/m 0 min 0 min 0,0 UV-I 0 W/m 8,4 km/h (2 Bft)
16.06.2014 05:12 10,2 C 8,9 C 95 % 1023,2 hPa 0,0 l/m 0 min 0 min 0,0 UV-I 6 W/m 2,1 km/h (1 Bft)
16.06.2014 05:14 10,1 C 8,9 C 92 % 1023,2 hPa 0,0 l/m 0 min 0 min 0,0 UV-I 6 W/m 0,0 km/h (0 Bft)
16.06.2014 05:16 10,1 C 8,9 C 92 % 1023,3 hPa 0,0 l/m 0 min 0 min 0,0 UV-I 6 W/m 0,0 km/h (0 Bft)
16.06.2014 05:18 10,1 C 8,9 C 92 % 1023,3 hPa 0,0 l/m 0 min 0 min 0,0 UV-I 6 W/m 0,0 km/h (0 Bft)
16.06.2014 05:20 10,1 C 8,9 C 92 % 1023,3 hPa 0,0 l/m 0 min 0 min 0,0 UV-I 8 W/m 0,0 km/h (0 Bft)
16.06.2014 05:22 10,0 C 8,9 C 92 % 1023,2 hPa 0,0 l/m 0 min 0 min 0,0 UV-I 8 W/m 8,4 km/h (2 Bft)
16.06.2014 05:24 10,0 C 8,9 C 92 % 1023,2 hPa 0,0 l/m 0 min 0 min 0,0 UV-I 8 W/m 0,0 km/h (0 Bft)
16.06.2014 05:26 10,0 C 8,9 C 92 % 1023,3 hPa 0,0 l/m 0 min 0 min 0,0 UV-I 10 W/m 6,3 km/h (2 Bft)
16.06.2014 05:28 9,9 C 8,9 C 92 % 1023,3 hPa 0,0 l/m 0 min 0 min 0,0 UV-I 10 W/m 4,2 km/h (1 Bft)
16.06.2014 05:30 9,9 C 8,9 C 92 % 1023,3 hPa 0,0 l/m 0 min 0 min 0,0 UV-I 13 W/m 0,0 km/h (0 Bft)
16.06.2014 05:32 9,9 C 8,9 C 92 % 1023,3 hPa 0,0 l/m 2 min 0 min 0,0 UV-I 13 W/m 6,3 km/h (2 Bft)
16.06.2014 05:34 9,9 C 8,9 C 92 % 1023,3 hPa 0,0 l/m 2 min 0 min 0,0 UV-I 14 W/m 6,3 km/h (2 Bft)
16.06.2014 05:36 9,9 C 8,9 C 92 % 1023,3 hPa 0,0 l/m 2 min 0 min 0,0 UV-I 16 W/m 4,2 km/h (1 Bft)
16.06.2014 05:38 9,9 C 8,9 C 92 % 1023,4 hPa 0,0 l/m 2 min 0 min 0,0 UV-I 18 W/m 8,4 km/h (2 Bft)
16.06.2014 05:40 9,9 C 8,9 C 92 % 1023,3 hPa 0,0 l/m 2 min 0 min 0,0 UV-I 21 W/m 6,3 km/h (2 Bft)
16.06.2014 05:42 9,9 C 8,9 C 92 % 1023,3 hPa 0,0 l/m 2 min 0 min 0,0 UV-I 26 W/m 4,2 km/h (1 Bft)
16.06.2014 05:44 9,9 C 8,9 C 92 % 1023,3 hPa 0,0 l/m 2 min 0 min 0,0 UV-I 29 W/m 0,0 km/h (0 Bft)
16.06.2014 05:46 9,8 C 8,9 C 92 % 1023,3 hPa 0,0 l/m 2 min 0 min 0,0 UV-I 30 W/m 0,0 km/h (0 Bft)
16.06.2014 05:48 9,8 C 8,9 C 92 % 1023,3 hPa 0,0 l/m 2 min 0 min 0,0 UV-I 34 W/m 0,0 km/h (0 Bft)
16.06.2014 05:50 9,8 C 8,9 C 92 % 1023,4 hPa 0,0 l/m 2 min 0 min 0,0 UV-I 37 W/m 0,0 km/h (0 Bft)
16.06.2014 05:52 9,8 C 8,9 C 92 % 1023,3 hPa 0,0 l/m 2 min 0 min 0,0 UV-I 37 W/m 0,0 km/h (0 Bft)
16.06.2014 05:54 9,8 C 8,9 C 92 % 1023,4 hPa 0,0 l/m 2 min 0 min 0,0 UV-I 38 W/m 6,3 km/h (2 Bft)
16.06.2014 05:56 9,8 C 8,9 C 92 % 1023,4 hPa 0,0 l/m 2 min 0 min 0,0 UV-I 38 W/m 0,0 km/h (0 Bft)
16.06.2014 05:58 9,8 C 8,9 C 92 % 1023,4 hPa 0,0 l/m 2 min 0 min 0,0 UV-I 40 W/m 8,4 km/h (2 Bft)
16.06.2014 06:00 9,8 C 8,9 C 92 % 1023,4 hPa 0,0 l/m 2 min 0 min 0,0 UV-I 43 W/m 8,4 km/h (2 Bft)
16.06.2014 06:02 9,9 C 8,9 C 92 % 1023,4 hPa 0,0 l/m 2 min 0 min 0,0 UV-I 45 W/m 6,3 km/h (2 Bft)
16.06.2014 06:06 9,9 C 8,9 C 92 % 1023,4 hPa 0,0 l/m 0 min 0 min 0,0 UV-I 46 W/m 8,4 km/h (2 Bft)
16.06.2014 06:08 9,9 C 8,9 C 92 % 1023,4 hPa 0,0 l/m 0 min 0 min 0,0 UV-I 51 W/m 10,5 km/h (2 Bft)
16.06.2014 06:10 9,9 C 8,9 C 92 % 1023,4 hPa 0,0 l/m 2 min 0 min 0,0 UV-I 62 W/m 12,6 km/h (3 Bft)
16.06.2014 06:12 9,9 C 8,9 C 92 % 1023,4 hPa 0,0 l/m 2 min 0 min 0,0 UV-I 72 W/m 0,0 km/h (0 Bft)
16.06.2014 06:14 9,9 C 8,9 C 92 % 1023,4 hPa 0,0 l/m 2 min 0 min 0,0 UV-I 80 W/m 6,3 km/h (2 Bft)
16.06.2014 06:16 9,9 C 8,9 C 92 % 1023,4 hPa 0,0 l/m 2 min 0 min 0,0 UV-I 87 W/m 6,3 km/h (2 Bft)
16.06.2014 06:18 9,9 C 8,9 C 92 % 1023,5 hPa 0,0 l/m 2 min 0 min 0,0 UV-I 83 W/m 8,4 km/h (2 Bft)
16.06.2014 06:20 9,9 C 8,9 C 92 % 1023,5 hPa 0,0 l/m 0 min 0 min 0,0 UV-I 61 W/m 10,5 km/h (2 Bft)
16.06.2014 06:22 10,0 C 8,9 C 92 % 1023,5 hPa 0,0 l/m 2 min 0 min 0,0 UV-I 83 W/m 10,5 km/h (2 Bft)
16.06.2014 06:24 10,0 C 9,4 C 92 % 1023,4 hPa 0,0 l/m 2 min 0 min 0,0 UV-I 120 W/m 12,6 km/h (3 Bft)
16.06.2014 06:26 10,1 C 9,4 C 92 % 1023,4 hPa 0,0 l/m 2 min 0 min 0,0 UV-I 125 W/m 12,6 km/h (3 Bft)
16.06.2014 06:28 10,1 C 9,4 C 92 % 1023,4 hPa 0,0 l/m 2 min 0 min 0,0 UV-I 125 W/m 4,2 km/h (1 Bft)
16.06.2014 06:30 10,1 C 9,4 C 92 % 1023,4 hPa 0,0 l/m 2 min 0 min 0,0 UV-I 125 W/m 8,4 km/h (2 Bft)
16.06.2014 06:32 10,2 C 9,4 C 92 % 1023,4 hPa 0,0 l/m 2 min 0 min 0,0 UV-I 133 W/m 8,4 km/h (2 Bft)
16.06.2014 06:34 10,2 C 9,4 C 92 % 1023,4 hPa 0,0 l/m 2 min 0 min 0,0 UV-I 141 W/m 8,4 km/h (2 Bft)
16.06.2014 06:36 10,2 C 9,4 C 92 % 1023,4 hPa 0,0 l/m 2 min 0 min 0,0 UV-I 136 W/m 10,5 km/h (2 Bft)
16.06.2014 06:38 10,3 C 9,4 C 91 % 1023,4 hPa 0,0 l/m 2 min 0 min 0,0 UV-I 121 W/m 0,0 km/h (0 Bft)
16.06.2014 06:40 10,3 C 9,4 C 91 % 1023,4 hPa 0,0 l/m 2 min 0 min 0,0 UV-I 117 W/m 4,2 km/h (1 Bft)
16.06.2014 06:42 10,3 C 9,4 C 91 % 1023,4 hPa 0,0 l/m 2 min 0 min 0,0 UV-I 123 W/m 8,4 km/h (2 Bft)
16.06.2014 06:44 10,4 C 10,0 C 91 % 1023,4 hPa 0,0 l/m 2 min 0 min 0,0 UV-I 113 W/m 0,0 km/h (0 Bft)
16.06.2014 06:46 10,4 C 10,0 C 91 % 1023,4 hPa 0,0 l/m 0 min 0 min 0,0 UV-I 99 W/m 2,1 km/h (1 Bft)
16.06.2014 06:48 10,5 C 10,0 C 91 % 1023,4 hPa 0,0 l/m 0 min 0 min 0,0 UV-I 83 W/m 6,3 km/h (2 Bft)
16.06.2014 06:50 10,6 C 10,0 C 91 % 1023,4 hPa 0,0 l/m 0 min 0 min 0,0 UV-I 75 W/m 8,4 km/h (2 Bft)
16.06.2014 06:52 10,7 C 10,0 C 91 % 1023,4 hPa 0,0 l/m 0 min 0 min 0,0 UV-I 64 W/m 10,5 km/h (2 Bft)
16.06.2014 06:54 10,7 C 10,0 C 90 % 1023,4 hPa 0,0 l/m 0 min 0 min 0,0 UV-I 62 W/m 8,4 km/h (2 Bft)
16.06.2014 06:56 10,8 C 10,6 C 90 % 1023,3 hPa 0,0 l/m 0 min 0 min 0,0 UV-I 61 W/m 8,4 km/h (2 Bft)
16.06.2014 06:58 10,8 C 10,6 C 90 % 1023,4 hPa 0,0 l/m 0 min 0 min 0,0 UV-I 59 W/m 2,1 km/h (1 Bft)
16.06.2014 07:00 10,8 C 10,6 C 90 % 1023,4 hPa 0,0 l/m 0 min 0 min 0,0 UV-I 62 W/m 12,6 km/h (3 Bft)
16.06.2014 07:02 10,9 C 10,6 C 90 % 1023,4 hPa 0,0 l/m 0 min 0 min 0,0 UV-I 62 W/m 8,4 km/h (2 Bft)
16.06.2014 07:04 10,9 C 10,6 C 90 % 1023,4 hPa 0,0 l/m 0 min 0 min 0,0 UV-I 75 W/m 8,4 km/h (2 Bft)
16.06.2014 07:06 11,1 C 10,6 C 90 % 1023,4 hPa 0,0 l/m 0 min 0 min 0,0 UV-I 79 W/m 6,3 km/h (2 Bft)
16.06.2014 07:08 11,1 C 10,6 C 89 % 1023,4 hPa 0,0 l/m 0 min 0 min 0,0 UV-I 79 W/m 10,5 km/h (2 Bft)
16.06.2014 07:10 11,1 C 10,6 C 89 % 1023,5 hPa 0,0 l/m 0 min 0 min 0,0 UV-I 83 W/m 8,4 km/h (2 Bft)
16.06.2014 07:12 11,2 C 11,1 C 89 % 1023,4 hPa 0,0 l/m 0 min 0 min 0,0 UV-I 87 W/m 4,2 km/h (1 Bft)
16.06.2014 07:14 11,2 C 11,1 C 89 % 1023,4 hPa 0,0 l/m 0 min 0 min 0,0 UV-I 87 W/m 6,3 km/h (2 Bft)
16.06.2014 07:16 11,3 C 11,1 C 89 % 1023,4 hPa 0,0 l/m 0 min 0 min 0,0 UV-I 95 W/m 4,2 km/h (1 Bft)
16.06.2014 07:18 11,4 C 11,1 C 89 % 1023,3 hPa 0,0 l/m 0 min 0 min 0,0 UV-I 97 W/m 8,4 km/h (2 Bft)
16.06.2014 07:20 11,4 C 11,1 C 88 % 1023,4 hPa 0,0 l/m 0 min 0 min 0,0 UV-I 97 W/m 8,4 km/h (2 Bft)
16.06.2014 07:22 11,5 C 11,1 C 88 % 1023,4 hPa 0,0 l/m 0 min 0 min 0,0 UV-I 104 W/m 4,2 km/h (1 Bft)
16.06.2014 07:24 11,6 C 11,1 C 88 % 1023,3 hPa 0,0 l/m 0 min 0 min 0,0 UV-I 105 W/m 10,5 km/h (2 Bft)
16.06.2014 07:26 11,6 C 11,7 C 88 % 1023,3 hPa 0,0 l/m 0 min 0 min 0,0 UV-I 115 W/m 8,4 km/h (2 Bft)
16.06.2014 07:28 11,7 C 11,7 C 87 % 1023,3 hPa 0,0 l/m 0 min 0 min 0,0 UV-I 115 W/m 12,6 km/h (3 Bft)
16.06.2014 07:30 11,7 C 11,7 C 87 % 1023,4 hPa 0,0 l/m 0 min 0 min 0,0 UV-I 120 W/m 10,5 km/h (2 Bft)
16.06.2014 07:32 11,7 C 11,7 C 87 % 1023,4 hPa 0,0 l/m 0 min 0 min 0,0 UV-I 120 W/m 8,4 km/h (2 Bft)
16.06.2014 07:34 11,8 C 11,7 C 87 % 1023,4 hPa 0,0 l/m 0 min 0 min 0,0 UV-I 117 W/m 8,4 km/h (2 Bft)
16.06.2014 07:36 11,8 C 11,7 C 87 % 1023,4 hPa 0,0 l/m 0 min 0 min 0,0 UV-I 120 W/m 0,0 km/h (0 Bft)
16.06.2014 07:38 11,9 C 11,7 C 86 % 1023,4 hPa 0,0 l/m 0 min 0 min 0,0 UV-I 120 W/m 10,5 km/h (2 Bft)
16.06.2014 07:40 11,9 C 11,7 C 86 % 1023,4 hPa 0,0 l/m 0 min 0 min 0,0 UV-I 120 W/m 10,5 km/h (2 Bft)
16.06.2014 07:42 11,9 C 11,7 C 86 % 1023,4 hPa 0,0 l/m 0 min 0 min 0,0 UV-I 125 W/m 12,6 km/h (3 Bft)
16.06.2014 07:44 11,9 C 11,7 C 86 % 1023,4 hPa 0,0 l/m 0 min 0 min 0,0 UV-I 128 W/m 12,6 km/h (3 Bft)
16.06.2014 07:46 12,0 C 11,7 C 86 % 1023,4 hPa 0,0 l/m 0 min 0 min 0,0 UV-I 139 W/m 10,5 km/h (2 Bft)
16.06.2014 07:48 12,1 C 11,7 C 85 % 1023,4 hPa 0,0 l/m 0 min 0 min 0,0 UV-I 152 W/m 10,5 km/h (2 Bft)
16.06.2014 07:50 12,1 C 12,2 C 85 % 1023,4 hPa 0,0 l/m 0 min 0 min 0,0 UV-I 160 W/m 12,6 km/h (3 Bft)
16.06.2014 07:52 12,1 C 12,2 C 85 % 1023,5 hPa 0,0 l/m 0 min 0 min 0,0 UV-I 147 W/m 8,4 km/h (2 Bft)
16.06.2014 07:54 12,2 C 12,2 C 84 % 1023,4 hPa 0,0 l/m 0 min 0 min 0,0 UV-I 152 W/m 8,4 km/h (2 Bft)
16.06.2014 07:56 12,2 C 12,2 C 84 % 1023,5 hPa 0,0 l/m 0 min 0 min 0,0 UV-I 158 W/m 12,6 km/h (3 Bft)
16.06.2014 07:58 12,3 C 12,2 C 84 % 1023,4 hPa 0,0 l/m 0 min 0 min 0,0 UV-I 155 W/m 10,5 km/h (2 Bft)
16.06.2014 08:00 12,3 C 12,2 C 84 % 1023,5 hPa 0,0 l/m 0 min 0 min 0,0 UV-I 163 W/m 8,4 km/h (2 Bft)
16.06.2014 08:02 12,3 C 12,2 C 83 % 1023,5 hPa 0,0 l/m 0 min 0 min 0,0 UV-I 176 W/m 6,3 km/h (2 Bft)
16.06.2014 08:04 12,4 C 12,2 C 84 % 1023,5 hPa 0,0 l/m 0 min 0 min 0,0 UV-I 171 W/m 8,4 km/h (2 Bft)
16.06.2014 08:06 12,4 C 12,2 C 83 % 1023,5 hPa 0,0 l/m 0 min 0 min 0,0 UV-I 168 W/m 12,6 km/h (3 Bft)
16.06.2014 08:08 12,4 C 12,2 C 83 % 1023,5 hPa 0,0 l/m 0 min 0 min 0,0 UV-I 168 W/m 12,6 km/h (3 Bft)
16.06.2014 08:10 12,4 C 12,2 C 83 % 1023,5 hPa 0,0 l/m 0 min 0 min 0,0 UV-I 158 W/m 10,5 km/h (2 Bft)
16.06.2014 08:12 12,5 C 12,2 C 82 % 1023,5 hPa 0,0 l/m 0 min 0 min 0,0 UV-I 155 W/m 12,6 km/h (3 Bft)
16.06.2014 08:14 12,6 C 12,8 C 83 % 1023,5 hPa 0,0 l/m 0 min 0 min 0,0 UV-I 166 W/m 8,4 km/h (2 Bft)
16.06.2014 08:16 12,6 C 12,8 C 82 % 1023,5 hPa 0,0 l/m 0 min 0 min 0,0 UV-I 174 W/m 14,6 km/h (3 Bft)
16.06.2014 08:18 12,6 C 12,8 C 82 % 1023,6 hPa 0,0 l/m 0 min 0 min 0,0 UV-I 178 W/m 14,6 km/h (3 Bft)
16.06.2014 08:20 12,6 C 12,8 C 82 % 1023,5 hPa 0,0 l/m 0 min 0 min 0,0 UV-I 186 W/m 10,5 km/h (2 Bft)
16.06.2014 08:22 12,7 C 12,8 C 82 % 1023,5 hPa 0,0 l/m 0 min 0 min 0,0 UV-I 205 W/m 18,8 km/h (3 Bft)
16.06.2014 08:24 12,7 C 12,8 C 81 % 1023,5 hPa 0,0 l/m 0 min 0 min 0,0 UV-I 214 W/m 14,6 km/h (3 Bft)
16.06.2014 08:26 12,7 C 12,8 C 80 % 1023,5 hPa 0,0 l/m 0 min 0 min 0,0 UV-I 210 W/m 10,5 km/h (2 Bft)
16.06.2014 08:28 12,7 C 12,8 C 81 % 1023,5 hPa 0,0 l/m 0 min 0 min 0,0 UV-I 205 W/m 8,4 km/h (2 Bft)
16.06.2014 08:30 12,8 C 12,8 C 81 % 1023,6 hPa 0,0 l/m 0 min 0 min 0,0 UV-I 205 W/m 10,5 km/h (2 Bft)
16.06.2014 08:32 12,9 C 12,8 C 81 % 1023,5 hPa 0,0 l/m 0 min 0 min 0,0 UV-I 206 W/m 12,6 km/h (3 Bft)
16.06.2014 08:34 12,9 C 12,8 C 81 % 1023,5 hPa 0,0 l/m 0 min 0 min 0,0 UV-I 214 W/m 4,2 km/h (1 Bft)
16.06.2014 08:36 12,9 C 13,3 C 82 % 1023,5 hPa 0,0 l/m 0 min 0 min 0,0 UV-I 230 W/m 10,5 km/h (2 Bft)
16.06.2014 08:38 13,1 C 13,3 C 82 % 1023,5 hPa 0,0 l/m 0 min 0 min 0,0 UV-I 243 W/m 10,5 km/h (2 Bft)
16.06.2014 08:40 13,1 C 13,3 C 80 % 1023,5 hPa 0,0 l/m 0 min 0 min 0,0 UV-I 253 W/m 10,5 km/h (2 Bft)
16.06.2014 08:42 13,2 C 13,3 C 80 % 1023,5 hPa 0,0 l/m 2 min 0 min 0,0 UV-I 338 W/m 10,5 km/h (2 Bft)
16.06.2014 08:44 13,2 C 13,3 C 79 % 1023,5 hPa 0,0 l/m 2 min 0 min 0,0 UV-I 430 W/m 8,4 km/h (2 Bft)
16.06.2014 08:46 13,3 C 13,3 C 79 % 1023,4 hPa 0,0 l/m 2 min 0 min 0,0 UV-I 413 W/m 10,5 km/h (2 Bft)
16.06.2014 08:48 13,4 C 13,3 C 79 % 1023,4 hPa 0,0 l/m 2 min 0 min 0,0 UV-I 459 W/m 12,6 km/h (3 Bft)
16.06.2014 08:50 13,5 C 13,3 C 78 % 1023,5 hPa 0,0 l/m 2 min 0 min 0,0 UV-I 419 W/m 12,6 km/h (3 Bft)
16.06.2014 08:52 13,5 C 12,8 C 76 % 1023,4 hPa 0,0 l/m 2 min 0 min 0,0 UV-I 438 W/m 12,6 km/h (3 Bft)
16.06.2014 08:54 13,5 C 13,3 C 76 % 1023,4 hPa 0,0 l/m 2 min 0 min 0,0 UV-I 394 W/m 8,4 km/h (2 Bft)
16.06.2014 08:56 13,6 C 13,3 C 76 % 1023,4 hPa 0,0 l/m 2 min 0 min 0,0 UV-I 515 W/m 2,1 km/h (1 Bft)
16.06.2014 08:58 13,7 C 13,3 C 77 % 1023,3 hPa 0,0 l/m 2 min 0 min 0,0 UV-I 509 W/m 8,4 km/h (2 Bft)
16.06.2014 09:00 13,8 C 13,3 C 76 % 1023,3 hPa 0,0 l/m 2 min 0 min 0,0 UV-I 504 W/m 10,5 km/h (2 Bft)
16.06.2014 09:02 13,8 C 13,3 C 75 % 1023,2 hPa 0,0 l/m 2 min 0 min 0,0 UV-I 405 W/m 6,3 km/h (2 Bft)
16.06.2014 09:04 13,8 C 13,3 C 75 % 1023,3 hPa 0,0 l/m 2 min 0 min 0,0 UV-I 371 W/m 10,5 km/h (2 Bft)
16.06.2014 09:06 13,7 C 13,3 C 75 % 1023,2 hPa 0,0 l/m 2 min 0 min 0,0 UV-I 394 W/m 0,0 km/h (0 Bft)
16.06.2014 09:08 13,7 C 13,3 C 75 % 1023,3 hPa 0,0 l/m 2 min 0 min 0,5 UV-I 616 W/m 6,3 km/h (2 Bft)
16.06.2014 09:10 13,9 C 13,9 C 74 % 1023,3 hPa 0,0 l/m 2 min 0 min 0,5 UV-I 608 W/m 8,4 km/h (2 Bft)
16.06.2014 09:12 14,1 C 13,9 C 74 % 1023,3 hPa 0,0 l/m 2 min 0 min 0,5 UV-I 614 W/m 8,4 km/h (2 Bft)
16.06.2014 09:14 14,1 C 13,9 C 74 % 1023,3 hPa 0,0 l/m 2 min 0 min 0,6 UV-I 616 W/m 0,0 km/h (0 Bft)
16.06.2014 09:16 14,2 C 13,9 C 74 % 1023,3 hPa 0,0 l/m 2 min 0 min 0,0 UV-I 568 W/m 0,0 km/h (0 Bft)
16.06.2014 09:18 14,3 C 14,4 C 74 % 1023,3 hPa 0,0 l/m 2 min 0 min 0,0 UV-I 414 W/m 6,3 km/h (2 Bft)
16.06.2014 09:20 14,6 C 14,4 C 74 % 1023,2 hPa 0,0 l/m 2 min 0 min 0,0 UV-I 413 W/m 0,0 km/h (0 Bft)
16.06.2014 09:22 14,5 C 15,0 C 72 % 1023,2 hPa 0,0 l/m 2 min 0 min 0,0 UV-I 413 W/m 2,1 km/h (1 Bft)
16.06.2014 09:24 14,6 C 15,0 C 73 % 1023,3 hPa 0,0 l/m 2 min 0 min 0,0 UV-I 362 W/m 8,4 km/h (2 Bft)
16.06.2014 09:26 14,4 C 15,0 C 72 % 1023,2 hPa 0,0 l/m 2 min 0 min 0,0 UV-I 317 W/m 0,0 km/h (0 Bft)
16.06.2014 09:28 14,3 C 15,0 C 73 % 1023,4 hPa 0,0 l/m 2 min 0 min 0,0 UV-I 334 W/m 10,5 km/h (2 Bft)
16.06.2014 09:30 14,2 C 15,0 C 72 % 1023,3 hPa 0,0 l/m 0 min 0 min 0,0 UV-I 313 W/m 8,4 km/h (2 Bft)
16.06.2014 09:32 14,2 C 15,0 C 72 % 1023,4 hPa 0,0 l/m 2 min 0 min 0,0 UV-I 344 W/m 8,4 km/h (2 Bft)
16.06.2014 09:34 14,2 C 15,0 C 74 % 1023,4 hPa 0,0 l/m 2 min 0 min 0,0 UV-I 350 W/m 14,6 km/h (3 Bft)
16.06.2014 09:36 14,2 C 15,0 C 73 % 1023,4 hPa 0,0 l/m 0 min 0 min 0,0 UV-I 301 W/m 14,6 km/h (3 Bft)
16.06.2014 09:38 14,3 C 15,0 C 74 % 1023,4 hPa 0,0 l/m 0 min 0 min 0,0 UV-I 288 W/m 12,6 km/h (3 Bft)
16.06.2014 09:40 14,4 C 15,0 C 72 % 1023,4 hPa 0,0 l/m 0 min 0 min 0,0 UV-I 323 W/m 10,5 km/h (2 Bft)
16.06.2014 09:42 14,4 C 15,0 C 73 % 1023,3 hPa 0,0 l/m 0 min 0 min 0,0 UV-I 331 W/m 18,8 km/h (3 Bft)
16.06.2014 09:44 14,4 C 15,0 C 72 % 1023,4 hPa 0,0 l/m 2 min 0 min 0,0 UV-I 334 W/m 18,8 km/h (3 Bft)
16.06.2014 09:46 14,4 C 15,0 C 72 % 1023,4 hPa 0,0 l/m 2 min 0 min 0,0 UV-I 390 W/m 18,8 km/h (3 Bft)
16.06.2014 09:48 14,4 C 15,0 C 72 % 1023,4 hPa 0,0 l/m 2 min 0 min 0,0 UV-I 499 W/m 16,7 km/h (3 Bft)
16.06.2014 09:50 14,5 C 15,0 C 73 % 1023,4 hPa 0,0 l/m 2 min 0 min 0,0 UV-I 408 W/m 16,7 km/h (3 Bft)
16.06.2014 09:52 14,6 C 15,0 C 72 % 1023,3 hPa 0,0 l/m 2 min 0 min 0,0 UV-I 469 W/m 20,9 km/h (4 Bft)
16.06.2014 09:54 14,6 C 15,0 C 71 % 1023,4 hPa 0,0 l/m 2 min 0 min 0,0 UV-I 350 W/m 18,8 km/h (3 Bft)
16.06.2014 09:56 14,5 C 15,0 C 71 % 1023,3 hPa 0,0 l/m 0 min 0 min 0,0 UV-I 328 W/m 16,7 km/h (3 Bft)
16.06.2014 09:58 14,3 C 15,0 C 72 % 1023,3 hPa 0,0 l/m 0 min 0 min 0,0 UV-I 328 W/m 12,6 km/h (3 Bft)
16.06.2014 10:00 14,2 C 15,0 C 72 % 1023,4 hPa 0,0 l/m 2 min 0 min 0,0 UV-I 378 W/m 14,6 km/h (3 Bft)
16.06.2014 10:02 14,3 C 15,0 C 73 % 1023,3 hPa 0,0 l/m 2 min 0 min 0,0 UV-I 414 W/m 18,8 km/h (3 Bft)
16.06.2014 10:04 14,4 C 15,0 C 73 % 1023,4 hPa 0,0 l/m 2 min 0 min 0,0 UV-I 380 W/m 18,8 km/h (3 Bft)
16.06.2014 10:06 14,5 C 15,0 C 73 % 1023,4 hPa 0,0 l/m 2 min 0 min 0,0 UV-I 384 W/m 20,9 km/h (4 Bft)
16.06.2014 10:08 14,4 C 15,0 C 72 % 1023,4 hPa 0,0 l/m 2 min 0 min 0,5 UV-I 408 W/m 8,4 km/h (2 Bft)
16.06.2014 10:10 14,4 C 15,0 C 73 % 1023,3 hPa 0,0 l/m 2 min 0 min 0,7 UV-I 459 W/m 18,8 km/h (3 Bft)
16.06.2014 10:12 14,4 C 15,0 C 72 % 1023,3 hPa 0,0 l/m 2 min 0 min 0,6 UV-I 430 W/m 16,7 km/h (3 Bft)
16.06.2014 10:14 14,2 C 15,0 C 72 % 1023,4 hPa 0,0 l/m 2 min 0 min 0,8 UV-I 505 W/m 12,6 km/h (3 Bft)
16.06.2014 10:16 14,5 C 15,6 C 76 % 1023,3 hPa 0,0 l/m 2 min 0 min 0,9 UV-I 597 W/m 4,2 km/h (1 Bft)
16.06.2014 10:18 14,9 C 16,1 C 74 % 1023,3 hPa 0,0 l/m 2 min 0 min 1,0 UV-I 520 W/m 10,5 km/h (2 Bft)
16.06.2014 10:20 15,1 C 16,7 C 72 % 1023,2 hPa 0,0 l/m 2 min 0 min 1,0 UV-I 574 W/m 12,6 km/h (3 Bft)
16.06.2014 10:22 15,3 C 17,2 C 73 % 1023,2 hPa 0,0 l/m 2 min 0 min 1,6 UV-I 574 W/m 16,7 km/h (3 Bft)
16.06.2014 10:24 15,7 C 17,8 C 73 % 1023,2 hPa 0,0 l/m 2 min 0 min 0,8 UV-I 651 W/m 14,6 km/h (3 Bft)
16.06.2014 10:26 15,7 C 17,2 C 70 % 1023,2 hPa 0,0 l/m 2 min 0 min 0,6 UV-I 469 W/m 14,6 km/h (3 Bft)
16.06.2014 10:28 15,4 C 16,7 C 71 % 1023,2 hPa 0,0 l/m 2 min 0 min 0,8 UV-I 485 W/m 16,7 km/h (3 Bft)
16.06.2014 10:30 15,5 C 17,2 C 72 % 1023,1 hPa 0,0 l/m 2 min 0 min 1,0 UV-I 512 W/m 10,5 km/h (2 Bft)
16.06.2014 10:32 15,4 C 17,2 C 71 % 1023,1 hPa 0,0 l/m 2 min 0 min 1,3 UV-I 710 W/m 16,7 km/h (3 Bft)
16.06.2014 10:34 15,4 C 17,2 C 72 % 1023,0 hPa 0,0 l/m 2 min 0 min 1,2 UV-I 614 W/m 16,7 km/h (3 Bft)
16.06.2014 10:36 15,4 C 16,7 C 71 % 1023,0 hPa 0,0 l/m 2 min 0 min 1,3 UV-I 580 W/m 12,6 km/h (3 Bft)
16.06.2014 10:38 15,4 C 17,2 C 73 % 1022,9 hPa 0,0 l/m 2 min 0 min 1,0 UV-I 580 W/m 12,6 km/h (3 Bft)
16.06.2014 10:40 15,7 C 17,2 C 72 % 1022,9 hPa 0,0 l/m 2 min 0 min 1,3 UV-I 605 W/m 14,6 km/h (3 Bft)
16.06.2014 10:42 15,6 C 17,2 C 72 % 1023,0 hPa 0,0 l/m 2 min 0 min 1,6 UV-I 800 W/m 14,6 km/h (3 Bft)
16.06.2014 10:44 15,8 C 17,8 C 72 % 1022,9 hPa 0,0 l/m 2 min 0 min 1,5 UV-I 693 W/m 16,7 km/h (3 Bft)
16.06.2014 10:46 16,1 C 17,8 C 71 % 1022,9 hPa 0,0 l/m 2 min 0 min 1,7 UV-I 932 W/m 18,8 km/h (3 Bft)
16.06.2014 10:48 16,1 C 17,8 C 70 % 1023,0 hPa 0,0 l/m 2 min 0 min 1,0 UV-I 697 W/m 16,7 km/h (3 Bft)
16.06.2014 10:50 15,7 C 17,2 C 70 % 1022,9 hPa 0,0 l/m 2 min 0 min 0,7 UV-I 416 W/m 14,6 km/h (3 Bft)
16.06.2014 10:52 15,5 C 16,7 C 72 % 1022,9 hPa 0,0 l/m 2 min 0 min 0,9 UV-I 544 W/m 12,6 km/h (3 Bft)
16.06.2014 10:54 15,6 C 16,7 C 73 % 1022,8 hPa 0,0 l/m 0 min 0 min 0,7 UV-I 376 W/m 10,5 km/h (2 Bft)
16.06.2014 10:56 15,6 C 16,7 C 72 % 1022,9 hPa 0,0 l/m 2 min 0 min 0,9 UV-I 520 W/m 18,8 km/h (3 Bft)
16.06.2014 10:58 15,7 C 16,7 C 72 % 1022,9 hPa 0,0 l/m 2 min 0 min 0,9 UV-I 493 W/m 14,6 km/h (3 Bft)
16.06.2014 11:00 15,7 C 17,2 C 73 % 1022,9 hPa 0,0 l/m 2 min 0 min 1,0 UV-I 491 W/m 12,6 km/h (3 Bft)
16.06.2014 11:02 16,0 C 17,8 C 74 % 1022,9 hPa 0,0 l/m 2 min 0 min 1,2 UV-I 504 W/m 8,4 km/h (2 Bft)
16.06.2014 11:04 16,2 C 17,8 C 73 % 1022,9 hPa 0,0 l/m 2 min 0 min 1,2 UV-I 546 W/m 8,4 km/h (2 Bft)
16.06.2014 11:06 16,3 C 17,8 C 73 % 1022,8 hPa 0,0 l/m 2 min 0 min 1,3 UV-I 574 W/m 12,6 km/h (3 Bft)
16.06.2014 11:08 16,4 C 18,3 C 72 % 1022,8 hPa 0,0 l/m 2 min 0 min 1,3 UV-I 637 W/m 10,5 km/h (2 Bft)
16.06.2014 11:10 16,4 C 18,3 C 71 % 1022,8 hPa 0,0 l/m 2 min 0 min 1,3 UV-I 592 W/m 12,6 km/h (3 Bft)
16.06.2014 11:12 16,4 C 18,3 C 72 % 1022,9 hPa 0,0 l/m 2 min 0 min 1,1 UV-I 550 W/m 14,6 km/h (3 Bft)
16.06.2014 11:14 16,2 C 18,3 C 72 % 1022,9 hPa 0,0 l/m 2 min 0 min 1,1 UV-I 509 W/m 10,5 km/h (2 Bft)
16.06.2014 11:16 16,3 C 18,3 C 73 % 1022,9 hPa 0,0 l/m 2 min 0 min 1,2 UV-I 522 W/m 10,5 km/h (2 Bft)
16.06.2014 11:18 16,4 C 18,3 C 72 % 1022,9 hPa 0,0 l/m 2 min 0 min 1,2 UV-I 555 W/m 12,6 km/h (3 Bft)
16.06.2014 11:20 16,6 C 18,9 C 74 % 1022,8 hPa 0,0 l/m 2 min 0 min 1,2 UV-I 560 W/m 16,7 km/h (3 Bft)
16.06.2014 11:22 16,7 C 18,9 C 72 % 1022,8 hPa 0,0 l/m 2 min 0 min 1,2 UV-I 542 W/m 8,4 km/h (2 Bft)
16.06.2014 11:24 16,4 C 18,3 C 71 % 1022,8 hPa 0,0 l/m 2 min 0 min 1,3 UV-I 582 W/m 10,5 km/h (2 Bft)
16.06.2014 11:26 16,3 C 18,3 C 72 % 1022,8 hPa 0,0 l/m 2 min 0 min 1,4 UV-I 606 W/m 10,5 km/h (2 Bft)
16.06.2014 11:28 16,3 C 18,3 C 74 % 1022,8 hPa 0,0 l/m 2 min 0 min 1,4 UV-I 590 W/m 10,5 km/h (2 Bft)
16.06.2014 11:30 16,4 C 18,9 C 74 % 1022,8 hPa 0,0 l/m 2 min 0 min 1,8 UV-I 657 W/m 16,7 km/h (3 Bft)
16.06.2014 11:32 16,4 C 18,9 C 72 % 1022,8 hPa 0,0 l/m 2 min 0 min 1,5 UV-I 667 W/m 18,8 km/h (3 Bft)
16.06.2014 11:34 16,3 C 18,3 C 71 % 1022,8 hPa 0,0 l/m 2 min 0 min 1,4 UV-I 611 W/m 14,6 km/h (3 Bft)
16.06.2014 11:36 16,1 C 18,3 C 71 % 1022,8 hPa 0,0 l/m 2 min 0 min 1,2 UV-I 534 W/m 10,5 km/h (2 Bft)
16.06.2014 11:38 16,1 C 18,3 C 73 % 1022,8 hPa 0,0 l/m 2 min 0 min 1,3 UV-I 564 W/m 18,8 km/h (3 Bft)
16.06.2014 11:40 15,9 C 17,8 C 71 % 1022,8 hPa 0,0 l/m 2 min 0 min 1,0 UV-I 491 W/m 10,5 km/h (2 Bft)
16.06.2014 11:42 15,7 C 17,8 C 73 % 1022,8 hPa 0,0 l/m 2 min 0 min 1,0 UV-I 465 W/m 6,3 km/h (2 Bft)
16.06.2014 11:44 16,0 C 17,8 C 75 % 1022,8 hPa 0,0 l/m 2 min 0 min 1,0 UV-I 469 W/m 8,4 km/h (2 Bft)
16.06.2014 11:46 16,3 C 17,8 C 74 % 1022,9 hPa 0,0 l/m 2 min 0 min 1,1 UV-I 480 W/m 14,6 km/h (3 Bft)
16.06.2014 11:48 16,3 C 17,8 C 72 % 1022,9 hPa 0,0 l/m 2 min 0 min 1,2 UV-I 483 W/m 8,4 km/h (2 Bft)
16.06.2014 11:50 16,5 C 18,3 C 74 % 1022,9 hPa 0,0 l/m 2 min 0 min 1,5 UV-I 566 W/m 14,6 km/h (3 Bft)
16.06.2014 11:52 16,4 C 18,3 C 72 % 1022,8 hPa 0,0 l/m 2 min 0 min 1,4 UV-I 592 W/m 18,8 km/h (3 Bft)
16.06.2014 11:54 16,5 C 18,3 C 72 % 1022,9 hPa 0,0 l/m 2 min 0 min 1,3 UV-I 566 W/m 16,7 km/h (3 Bft)
16.06.2014 11:56 16,5 C 18,3 C 72 % 1022,8 hPa 0,0 l/m 2 min 0 min 1,4 UV-I 597 W/m 10,5 km/h (2 Bft)
16.06.2014 11:58 16,6 C 18,9 C 73 % 1022,8 hPa 0,0 l/m 2 min 0 min 1,5 UV-I 702 W/m 4,2 km/h (1 Bft)
16.06.2014 12:00 16,8 C 18,9 C 73 % 1022,7 hPa 0,0 l/m 2 min 0 min 1,3 UV-I 554 W/m 10,5 km/h (2 Bft)
16.06.2014 12:02 17,1 C 19,4 C 73 % 1022,7 hPa 0,0 l/m 2 min 0 min 1,5 UV-I 597 W/m 20,9 km/h (4 Bft)
16.06.2014 12:06 17,0 C 18,9 C 70 % 1022,8 hPa 0,0 l/m 2 min 0 min 1,3 UV-I 547 W/m 16,7 km/h (3 Bft)
16.06.2014 12:08 16,8 C 18,9 C 70 % 1022,8 hPa 0,0 l/m 2 min 0 min 1,2 UV-I 520 W/m 8,4 km/h (2 Bft)
16.06.2014 12:10 16,6 C 18,9 C 71 % 1022,7 hPa 0,0 l/m 2 min 0 min 1,3 UV-I 546 W/m 2,1 km/h (1 Bft)
16.06.2014 12:12 16,7 C 18,9 C 73 % 1022,7 hPa 0,0 l/m 2 min 0 min 1,3 UV-I 584 W/m 14,6 km/h (3 Bft)
16.06.2014 12:14 16,9 C 18,9 C 73 % 1022,7 hPa 0,0 l/m 2 min 0 min 1,1 UV-I 469 W/m 12,6 km/h (3 Bft)
16.06.2014 12:16 17,1 C 18,9 C 72 % 1022,8 hPa 0,0 l/m 0 min 0 min 1,0 UV-I 445 W/m 8,4 km/h (2 Bft)
16.06.2014 12:18 17,0 C 18,9 C 71 % 1022,7 hPa 0,0 l/m 0 min 0 min 1,0 UV-I 455 W/m 12,6 km/h (3 Bft)
16.06.2014 12:20 16,8 C 18,3 C 71 % 1022,7 hPa 0,0 l/m 0 min 0 min 0,9 UV-I 422 W/m 18,8 km/h (3 Bft)
16.06.2014 12:22 16,6 C 18,3 C 70 % 1022,7 hPa 0,0 l/m 0 min 0 min 1,0 UV-I 421 W/m 10,5 km/h (2 Bft)
16.06.2014 12:24 16,5 C 18,3 C 72 % 1022,7 hPa 0,0 l/m 2 min 0 min 1,3 UV-I 496 W/m 12,6 km/h (3 Bft)
16.06.2014 12:26 16,4 C 18,3 C 72 % 1022,7 hPa 0,0 l/m 2 min 0 min 1,3 UV-I 536 W/m 14,6 km/h (3 Bft)
16.06.2014 12:28 16,4 C 17,8 C 72 % 1022,7 hPa 0,0 l/m 2 min 0 min 1,1 UV-I 488 W/m 14,6 km/h (3 Bft)
16.06.2014 12:30 16,4 C 18,3 C 72 % 1022,7 hPa 0,0 l/m 0 min 0 min 1,1 UV-I 465 W/m 10,5 km/h (2 Bft)
16.06.2014 12:32 16,3 C 17,8 C 72 % 1022,7 hPa 0,0 l/m 0 min 0 min 0,9 UV-I 413 W/m 14,6 km/h (3 Bft)
16.06.2014 12:34 16,3 C 17,8 C 73 % 1022,7 hPa 0,0 l/m 0 min 0 min 0,7 UV-I 380 W/m 14,6 km/h (3 Bft)
16.06.2014 12:36 16,3 C 17,8 C 74 % 1022,6 hPa 0,0 l/m 0 min 0 min 0,7 UV-I 371 W/m 8,4 km/h (2 Bft)
16.06.2014 12:38 16,4 C 17,8 C 74 % 1022,6 hPa 0,0 l/m 0 min 0 min 0,8 UV-I 394 W/m 16,7 km/h (3 Bft)
16.06.2014 12:40 16,4 C 17,8 C 74 % 1022,7 hPa 0,0 l/m 0 min 0 min 0,8 UV-I 386 W/m 14,6 km/h (3 Bft)
16.06.2014 12:42 16,6 C 17,8 C 74 % 1022,7 hPa 0,0 l/m 0 min 0 min 0,6 UV-I 338 W/m 10,5 km/h (2 Bft)
16.06.2014 12:44 16,6 C 17,8 C 74 % 1022,7 hPa 0,0 l/m 0 min 0 min 0,0 UV-I 288 W/m 16,7 km/h (3 Bft)
16.06.2014 12:46 16,7 C 17,8 C 73 % 1022,6 hPa 0,0 l/m 0 min 0 min 0,5 UV-I 309 W/m 12,6 km/h (3 Bft)
16.06.2014 12:48 16,6 C 17,8 C 72 % 1022,7 hPa 0,0 l/m 0 min 0 min 0,5 UV-I 297 W/m 14,6 km/h (3 Bft)
16.06.2014 12:50 16,5 C 17,8 C 72 % 1022,6 hPa 0,0 l/m 0 min 0 min 0,6 UV-I 323 W/m 12,6 km/h (3 Bft)
16.06.2014 12:52 16,6 C 17,8 C 72 % 1022,6 hPa 0,0 l/m 0 min 0 min 0,7 UV-I 362 W/m 12,6 km/h (3 Bft)
16.06.2014 12:54 16,7 C 17,8 C 74 % 1022,7 hPa 0,0 l/m 0 min 0 min 0,7 UV-I 331 W/m 8,4 km/h (2 Bft)
16.06.2014 12:56 16,8 C 17,8 C 74 % 1022,7 hPa 0,0 l/m 0 min 0 min 0,5 UV-I 299 W/m 16,7 km/h (3 Bft)
16.06.2014 12:58 16,9 C 17,8 C 72 % 1022,7 hPa 0,0 l/m 0 min 0 min 0,7 UV-I 339 W/m 16,7 km/h (3 Bft)
16.06.2014 13:00 16,8 C 17,8 C 74 % 1022,7 hPa 0,0 l/m 0 min 0 min 0,8 UV-I 374 W/m 12,6 km/h (3 Bft)
16.06.2014 13:02 16,9 C 17,8 C 74 % 1022,7 hPa 0,0 l/m 0 min 0 min 0,8 UV-I 355 W/m 14,6 km/h (3 Bft)
16.06.2014 13:04 17,0 C 17,8 C 72 % 1022,7 hPa 0,0 l/m 0 min 0 min 1,0 UV-I 416 W/m 14,6 km/h (3 Bft)
16.06.2014 13:06 17,0 C 18,3 C 75 % 1022,7 hPa 0,0 l/m 0 min 0 min 0,9 UV-I 408 W/m 10,5 km/h (2 Bft)
16.06.2014 13:08 17,1 C 18,3 C 74 % 1022,7 hPa 0,0 l/m 0 min 0 min 0,8 UV-I 382 W/m 20,9 km/h (4 Bft)
16.06.2014 13:10 16,9 C 18,3 C 73 % 1022,7 hPa 0,0 l/m 0 min 0 min 1,1 UV-I 448 W/m 16,7 km/h (3 Bft)
16.06.2014 13:12 17,0 C 18,9 C 74 % 1022,7 hPa 0,0 l/m 2 min 0 min 1,5 UV-I 568 W/m 18,8 km/h (3 Bft)
16.06.2014 13:14 17,2 C 18,9 C 73 % 1022,8 hPa 0,0 l/m 0 min 0 min 1,2 UV-I 472 W/m 18,8 km/h (3 Bft)
16.06.2014 13:16 17,4 C 18,9 C 75 % 1022,7 hPa 0,0 l/m 2 min 0 min 1,4 UV-I 493 W/m 14,6 km/h (3 Bft)
16.06.2014 13:18 17,5 C 19,4 C 73 % 1022,7 hPa 0,0 l/m 2 min 0 min 1,6 UV-I 555 W/m 18,8 km/h (3 Bft)
16.06.2014 13:20 17,4 C 19,4 C 72 % 1022,7 hPa 0,0 l/m 2 min 0 min 1,9 UV-I 653 W/m 16,7 km/h (3 Bft)
16.06.2014 13:22 17,5 C 19,4 C 74 % 1022,6 hPa 0,0 l/m 2 min 0 min 1,6 UV-I 584 W/m 10,5 km/h (2 Bft)
16.06.2014 13:24 17,8 C 20,0 C 75 % 1022,7 hPa 0,0 l/m 2 min 0 min 1,3 UV-I 496 W/m 10,5 km/h (2 Bft)
16.06.2014 13:26 17,8 C 20,0 C 73 % 1022,6 hPa 0,0 l/m 2 min 0 min 1,3 UV-I 507 W/m 12,6 km/h (3 Bft)
16.06.2014 13:28 17,7 C 20,0 C 73 % 1022,6 hPa 0,0 l/m 2 min 0 min 1,6 UV-I 574 W/m 12,6 km/h (3 Bft)
16.06.2014 13:30 17,4 C 20,0 C 71 % 1022,6 hPa 0,0 l/m 2 min 0 min 1,8 UV-I 641 W/m 16,7 km/h (3 Bft)
16.06.2014 13:32 17,5 C 20,0 C 73 % 1022,6 hPa 0,0 l/m 2 min 0 min 1,5 UV-I 584 W/m 14,6 km/h (3 Bft)
16.06.2014 13:34 17,4 C 20,0 C 72 % 1022,5 hPa 0,0 l/m 2 min 0 min 1,5 UV-I 566 W/m 14,6 km/h (3 Bft)
16.06.2014 13:36 17,4 C 20,0 C 73 % 1022,5 hPa 0,0 l/m 2 min 0 min 1,7 UV-I 649 W/m 10,5 km/h (2 Bft)
16.06.2014 13:38 17,1 C 20,0 C 73 % 1022,4 hPa 0,0 l/m 2 min 0 min 1,5 UV-I 582 W/m 12,6 km/h (3 Bft)
16.06.2014 13:40 17,3 C 20,0 C 74 % 1022,4 hPa 0,0 l/m 2 min 0 min 1,4 UV-I 528 W/m 8,4 km/h (2 Bft)
16.06.2014 13:42 17,2 C 20,0 C 73 % 1022,3 hPa 0,0 l/m 2 min 0 min 1,5 UV-I 598 W/m 10,5 km/h (2 Bft)
16.06.2014 13:44 17,3 C 20,0 C 74 % 1022,2 hPa 0,0 l/m 2 min 0 min 1,3 UV-I 538 W/m 8,4 km/h (2 Bft)
16.06.2014 13:46 17,8 C 20,0 C 73 % 1022,3 hPa 0,0 l/m 0 min 0 min 0,7 UV-I 398 W/m 6,3 km/h (2 Bft)
16.06.2014 13:48 18,0 C 20,0 C 74 % 1022,3 hPa 0,0 l/m 0 min 0 min 0,0 UV-I 271 W/m 12,6 km/h (3 Bft)
16.06.2014 13:50 17,9 C 18,9 C 71 % 1022,2 hPa 0,0 l/m 0 min 0 min 0,0 UV-I 221 W/m 8,4 km/h (2 Bft)
16.06.2014 13:52 17,9 C 18,9 C 72 % 1022,3 hPa 0,0 l/m 0 min 0 min 0,0 UV-I 190 W/m 14,6 km/h (3 Bft)
16.06.2014 13:54 17,7 C 17,8 C 71 % 1022,2 hPa 0,0 l/m 0 min 0 min 0,0 UV-I 160 W/m 12,6 km/h (3 Bft)
16.06.2014 13:56 17,3 C 17,2 C 72 % 1022,2 hPa 0,0 l/m 0 min 0 min 0,0 UV-I 131 W/m 14,6 km/h (3 Bft)
16.06.2014 13:58 17,1 C 17,2 C 73 % 1022,2 hPa 0,0 l/m 0 min 0 min 0,0 UV-I 130 W/m 14,6 km/h (3 Bft)
16.06.2014 14:00 17,0 C 17,2 C 73 % 1022,2 hPa 0,0 l/m 0 min 0 min 0,0 UV-I 138 W/m 10,5 km/h (2 Bft)
16.06.2014 14:02 16,9 C 16,7 C 75 % 1022,1 hPa 0,0 l/m 0 min 0 min 0,0 UV-I 138 W/m 16,7 km/h (3 Bft)
16.06.2014 14:04 16,8 C 16,7 C 74 % 1022,2 hPa 0,0 l/m 0 min 0 min 0,0 UV-I 168 W/m 12,6 km/h (3 Bft)
16.06.2014 14:06 16,8 C 16,7 C 75 % 1022,1 hPa 0,0 l/m 0 min 0 min 0,0 UV-I 176 W/m 8,4 km/h (2 Bft)
16.06.2014 14:08 16,8 C 16,7 C 75 % 1022,2 hPa 0,0 l/m 0 min 0 min 0,0 UV-I 192 W/m 18,8 km/h (3 Bft)
16.06.2014 14:10 16,8 C 16,7 C 75 % 1022,1 hPa 0,0 l/m 0 min 0 min 0,0 UV-I 202 W/m 16,7 km/h (3 Bft)
16.06.2014 14:12 16,7 C 16,7 C 75 % 1022,2 hPa 0,0 l/m 0 min 0 min 0,0 UV-I 170 W/m 10,5 km/h (2 Bft)
16.06.2014 14:14 16,9 C 16,7 C 77 % 1022,2 hPa 0,0 l/m 0 min 0 min 0,0 UV-I 154 W/m 4,2 km/h (1 Bft)
16.06.2014 14:16 16,9 C 16,7 C 76 % 1022,2 hPa 0,0 l/m 0 min 0 min 0,0 UV-I 141 W/m 16,7 km/h (3 Bft)
16.06.2014 14:18 17,0 C 16,7 C 77 % 1022,1 hPa 0,0 l/m 0 min 0 min 0,0 UV-I 162 W/m 14,6 km/h (3 Bft)
16.06.2014 14:20 17,0 C 17,2 C 77 % 1022,1 hPa 0,0 l/m 0 min 0 min 0,0 UV-I 174 W/m 14,6 km/h (3 Bft)
16.06.2014 14:22 16,9 C 16,7 C 75 % 1022,1 hPa 0,0 l/m 0 min 0 min 0,0 UV-I 186 W/m 12,6 km/h (3 Bft)
16.06.2014 14:24 16,9 C 17,2 C 76 % 1022,1 hPa 0,0 l/m 0 min 0 min 0,0 UV-I 186 W/m 12,6 km/h (3 Bft)
16.06.2014 14:26 16,9 C 17,2 C 76 % 1022,0 hPa 0,0 l/m 0 min 0 min 0,0 UV-I 176 W/m 16,7 km/h (3 Bft)
16.06.2014 14:28 16,9 C 17,2 C 76 % 1022,0 hPa 0,0 l/m 0 min 0 min 0,0 UV-I 163 W/m 18,8 km/h (3 Bft)
16.06.2014 14:30 16,9 C 16,7 C 77 % 1022,0 hPa 0,0 l/m 0 min 0 min 0,0 UV-I 179 W/m 14,6 km/h (3 Bft)
16.06.2014 14:32 16,9 C 16,7 C 77 % 1022,0 hPa 0,0 l/m 0 min 0 min 0,0 UV-I 179 W/m 25,1 km/h (4 Bft)
16.06.2014 14:34 16,8 C 16,7 C 77 % 1022,0 hPa 0,0 l/m 0 min 0 min 0,0 UV-I 186 W/m 16,7 km/h (3 Bft)
16.06.2014 14:36 16,7 C 16,7 C 77 % 1022,0 hPa 0,0 l/m 0 min 0 min 0,0 UV-I 166 W/m 12,6 km/h (3 Bft)
16.06.2014 14:38 16,6 C 16,7 C 77 % 1022,0 hPa 0,0 l/m 0 min 0 min 0,0 UV-I 155 W/m 20,9 km/h (4 Bft)
16.06.2014 14:40 16,5 C 16,1 C 78 % 1022,1 hPa 0,0 l/m 0 min 0 min 0,0 UV-I 130 W/m 18,8 km/h (3 Bft)
16.06.2014 14:42 16,3 C 16,1 C 78 % 1022,0 hPa 0,0 l/m 0 min 0 min 0,0 UV-I 99 W/m 14,6 km/h (3 Bft)
16.06.2014 14:44 16,1 C 15,6 C 79 % 1022,0 hPa 0,0 l/m 0 min 0 min 0,0 UV-I 85 W/m 12,6 km/h (3 Bft)
16.06.2014 14:46 16,1 C 15,6 C 80 % 1022,0 hPa 0,0 l/m 0 min 0 min 0,0 UV-I 71 W/m 6,3 km/h (2 Bft)
16.06.2014 14:48 16,0 C 15,6 C 80 % 1022,0 hPa 0,0 l/m 0 min 0 min 0,0 UV-I 64 W/m 16,7 km/h (3 Bft)
16.06.2014 14:50 15,9 C 15,6 C 80 % 1021,9 hPa 0,0 l/m 0 min 0 min 0,0 UV-I 62 W/m 16,7 km/h (3 Bft)
16.06.2014 14:52 15,9 C 15,6 C 81 % 1021,9 hPa 0,0 l/m 0 min 0 min 0,0 UV-I 77 W/m 14,6 km/h (3 Bft)
16.06.2014 14:54 16,0 C 15,6 C 82 % 1021,9 hPa 0,0 l/m 0 min 0 min 0,0 UV-I 93 W/m 16,7 km/h (3 Bft)
16.06.2014 14:56 15,9 C 15,0 C 82 % 1021,9 hPa 0,0 l/m 0 min 0 min 0,0 UV-I 109 W/m 18,8 km/h (3 Bft)
16.06.2014 14:58 15,8 C 15,0 C 83 % 1021,9 hPa 0,0 l/m 0 min 2 min 0,0 UV-I 121 W/m 23,0 km/h (4 Bft)
16.06.2014 15:00 15,7 C 14,4 C 84 % 1021,9 hPa 0,0 l/m 0 min 0 min 0,0 UV-I 130 W/m 20,9 km/h (4 Bft)
16.06.2014 15:02 15,5 C 14,4 C 85 % 1021,8 hPa 0,0 l/m 0 min 0 min 0,0 UV-I 133 W/m 12,6 km/h (3 Bft)
16.06.2014 15:04 15,4 C 14,4 C 86 % 1021,9 hPa 0,0 l/m 0 min 0 min 0,0 UV-I 144 W/m 14,6 km/h (3 Bft)
16.06.2014 15:06 15,4 C 15,0 C 87 % 1021,9 hPa 0,0 l/m 0 min 0 min 0,0 UV-I 150 W/m 10,5 km/h (2 Bft)
16.06.2014 15:08 15,3 C 15,0 C 87 % 1021,8 hPa 0,0 l/m 0 min 0 min 0,0 UV-I 138 W/m 12,6 km/h (3 Bft)
16.06.2014 15:10 15,2 C 15,0 C 87 % 1021,8 hPa 0,0 l/m 0 min 0 min 0,0 UV-I 113 W/m 12,6 km/h (3 Bft)
16.06.2014 15:12 15,2 C 14,4 C 88 % 1021,9 hPa 0,0 l/m 0 min 0 min 0,0 UV-I 91 W/m 18,8 km/h (3 Bft)
16.06.2014 15:14 15,1 C 14,4 C 88 % 1021,9 hPa 0,0 l/m 0 min 2 min 0,0 UV-I 67 W/m 10,5 km/h (2 Bft)
16.06.2014 15:16 15,0 C 13,9 C 89 % 1022,0 hPa 0,0 l/m 0 min 2 min 0,0 UV-I 51 W/m 10,5 km/h (2 Bft)
16.06.2014 15:18 14,9 C 13,3 C 90 % 1022,0 hPa 0,0 l/m 0 min 2 min 0,0 UV-I 56 W/m 12,6 km/h (3 Bft)
16.06.2014 15:20 14,8 C 13,3 C 90 % 1022,0 hPa 0,0 l/m 0 min 2 min 0,0 UV-I 79 W/m 14,6 km/h (3 Bft)
16.06.2014 15:22 14,6 C 13,3 C 91 % 1022,0 hPa 0,2 l/m 0 min 2 min 0,0 UV-I 158 W/m 14,6 km/h (3 Bft)
16.06.2014 15:24 14,5 C 13,3 C 91 % 1022,0 hPa 0,2 l/m 0 min 2 min 0,0 UV-I 155 W/m 12,6 km/h (3 Bft)
16.06.2014 15:26 14,4 C 13,3 C 92 % 1021,9 hPa 0,0 l/m 0 min 2 min 0,5 UV-I 221 W/m 0,0 km/h (0 Bft)
16.06.2014 15:28 14,5 C 13,9 C 92 % 1021,9 hPa 0,0 l/m 0 min 0 min 1,0 UV-I 317 W/m 0,0 km/h (0 Bft)
16.06.2014 15:30 14,7 C 14,4 C 93 % 1021,8 hPa 0,0 l/m 0 min 0 min 1,1 UV-I 328 W/m 8,4 km/h (2 Bft)
16.06.2014 15:32 14,8 C 14,4 C 94 % 1021,8 hPa 0,0 l/m 0 min 0 min 1,1 UV-I 321 W/m 2,1 km/h (1 Bft)
16.06.2014 15:34 14,6 C 14,4 C 94 % 1021,7 hPa 0,0 l/m 0 min 0 min 1,1 UV-I 331 W/m 0,0 km/h (0 Bft)
16.06.2014 15:36 14,7 C 14,4 C 93 % 1021,7 hPa 0,0 l/m 0 min 0 min 1,2 UV-I 350 W/m 2,1 km/h (1 Bft)
16.06.2014 15:38 14,8 C 15,0 C 94 % 1021,7 hPa 0,0 l/m 0 min 0 min 1,2 UV-I 368 W/m 0,0 km/h (0 Bft)
16.06.2014 15:40 14,9 C 15,0 C 94 % 1021,6 hPa 0,0 l/m 0 min 0 min 0,9 UV-I 325 W/m 0,0 km/h (0 Bft)
16.06.2014 15:42 14,9 C 15,0 C 94 % 1021,6 hPa 0,0 l/m 0 min 0 min 0,8 UV-I 309 W/m 0,0 km/h (0 Bft)
16.06.2014 15:44 15,1 C 15,0 C 94 % 1021,6 hPa 0,0 l/m 0 min 0 min 1,0 UV-I 330 W/m 0,0 km/h (0 Bft)
16.06.2014 15:46 15,3 C 15,6 C 94 % 1021,5 hPa 0,0 l/m 0 min 0 min 1,2 UV-I 362 W/m 0,0 km/h (0 Bft)
16.06.2014 15:48 15,4 C 15,6 C 94 % 1021,5 hPa 0,0 l/m 0 min 0 min 1,3 UV-I 380 W/m 0,0 km/h (0 Bft)
16.06.2014 15:50 15,4 C 15,6 C 93 % 1021,5 hPa 0,0 l/m 0 min 0 min 1,3 UV-I 398 W/m 0,0 km/h (0 Bft)
16.06.2014 15:52 15,6 C 15,6 C 93 % 1021,5 hPa 0,0 l/m 0 min 0 min 0,9 UV-I 328 W/m 0,0 km/h (0 Bft)
16.06.2014 15:54 15,7 C 15,0 C 93 % 1021,5 hPa 0,0 l/m 0 min 0 min 0,0 UV-I 238 W/m 2,1 km/h (1 Bft)
16.06.2014 15:56 15,6 C 15,0 C 92 % 1021,6 hPa 0,0 l/m 0 min 0 min 0,0 UV-I 186 W/m 0,0 km/h (0 Bft)
16.06.2014 15:58 15,6 C 14,4 C 92 % 1021,6 hPa 0,0 l/m 0 min 0 min 0,0 UV-I 179 W/m 12,6 km/h (3 Bft)
16.06.2014 16:00 15,5 C 14,4 C 92 % 1021,6 hPa 0,0 l/m 0 min 0 min 0,0 UV-I 179 W/m 8,4 km/h (2 Bft)
16.06.2014 16:02 15,5 C 14,4 C 92 % 1021,7 hPa 0,0 l/m 0 min 0 min 0,0 UV-I 190 W/m 10,5 km/h (2 Bft)
16.06.2014 16:04 15,5 C 14,4 C 91 % 1021,6 hPa 0,0 l/m 0 min 0 min 0,0 UV-I 168 W/m 6,3 km/h (2 Bft)
16.06.2014 16:06 15,6 C 14,4 C 92 % 1021,6 hPa 0,0 l/m 0 min 0 min 0,0 UV-I 168 W/m 0,0 km/h (0 Bft)
16.06.2014 16:08 15,6 C 14,4 C 92 % 1021,5 hPa 0,0 l/m 0 min 0 min 0,0 UV-I 168 W/m 8,4 km/h (2 Bft)
16.06.2014 16:10 15,6 C 14,4 C 92 % 1021,5 hPa 0,0 l/m 0 min 0 min 0,0 UV-I 182 W/m 2,1 km/h (1 Bft)
16.06.2014 16:12 15,7 C 15,0 C 92 % 1021,5 hPa 0,0 l/m 0 min 0 min 0,0 UV-I 213 W/m 6,3 km/h (2 Bft)
16.06.2014 16:14 15,8 C 15,0 C 92 % 1021,5 hPa 0,0 l/m 0 min 0 min 0,6 UV-I 288 W/m 6,3 km/h (2 Bft)
16.06.2014 16:16 15,9 C 15,6 C 92 % 1021,5 hPa 0,0 l/m 0 min 0 min 0,9 UV-I 338 W/m 8,4 km/h (2 Bft)
16.06.2014 16:18 16,0 C 15,6 C 92 % 1021,5 hPa 0,0 l/m 0 min 0 min 0,9 UV-I 315 W/m 12,6 km/h (3 Bft)
16.06.2014 16:20 16,0 C 15,6 C 91 % 1021,5 hPa 0,0 l/m 0 min 0 min 0,9 UV-I 350 W/m 10,5 km/h (2 Bft)
16.06.2014 16:22 16,0 C 15,6 C 90 % 1021,5 hPa 0,0 l/m 0 min 0 min 0,9 UV-I 336 W/m 12,6 km/h (3 Bft)
16.06.2014 16:24 16,1 C 15,6 C 90 % 1021,5 hPa 0,0 l/m 0 min 0 min 1,0 UV-I 366 W/m 2,1 km/h (1 Bft)
16.06.2014 16:26 16,3 C 16,1 C 90 % 1021,5 hPa 0,0 l/m 0 min 0 min 1,0 UV-I 344 W/m 0,0 km/h (0 Bft)
16.06.2014 16:28 16,5 C 16,1 C 90 % 1021,5 hPa 0,0 l/m 0 min 0 min 1,1 UV-I 362 W/m 8,4 km/h (2 Bft)
16.06.2014 16:30 16,6 C 16,7 C 90 % 1021,4 hPa 0,0 l/m 0 min 0 min 1,1 UV-I 384 W/m 8,4 km/h (2 Bft)
16.06.2014 16:32 16,5 C 16,1 C 89 % 1021,4 hPa 0,0 l/m 0 min 0 min 0,8 UV-I 347 W/m 10,5 km/h (2 Bft)
16.06.2014 16:34 16,4 C 15,6 C 87 % 1021,4 hPa 0,0 l/m 0 min 0 min 0,5 UV-I 261 W/m 12,6 km/h (3 Bft)
16.06.2014 16:36 16,4 C 15,6 C 87 % 1021,4 hPa 0,0 l/m 0 min 0 min 0,0 UV-I 227 W/m 8,4 km/h (2 Bft)
16.06.2014 16:38 16,3 C 15,0 C 87 % 1021,5 hPa 0,0 l/m 0 min 0 min 0,0 UV-I 170 W/m 14,6 km/h (3 Bft)
16.06.2014 16:40 16,2 C 15,0 C 87 % 1021,4 hPa 0,0 l/m 0 min 0 min 0,0 UV-I 160 W/m 14,6 km/h (3 Bft)
16.06.2014 16:42 16,2 C 14,4 C 87 % 1021,4 hPa 0,0 l/m 0 min 0 min 0,0 UV-I 179 W/m 8,4 km/h (2 Bft)
16.06.2014 16:44 16,1 C 14,4 C 87 % 1021,4 hPa 0,0 l/m 0 min 0 min 0,0 UV-I 166 W/m 10,5 km/h (2 Bft)
16.06.2014 16:46 16,2 C 15,0 C 88 % 1021,4 hPa 0,0 l/m 0 min 0 min 0,0 UV-I 162 W/m 8,4 km/h (2 Bft)
16.06.2014 16:48 16,3 C 15,0 C 88 % 1021,4 hPa 0,0 l/m 0 min 0 min 0,0 UV-I 162 W/m 12,6 km/h (3 Bft)
16.06.2014 16:50 16,3 C 15,0 C 88 % 1021,4 hPa 0,0 l/m 0 min 0 min 0,0 UV-I 160 W/m 12,6 km/h (3 Bft)
16.06.2014 16:52 16,4 C 15,0 C 88 % 1021,4 hPa 0,0 l/m 0 min 0 min 0,0 UV-I 178 W/m 12,6 km/h (3 Bft)
16.06.2014 16:54 16,4 C 15,0 C 87 % 1021,4 hPa 0,0 l/m 0 min 0 min 0,0 UV-I 179 W/m 12,6 km/h (3 Bft)
16.06.2014 16:56 16,4 C 15,0 C 87 % 1021,3 hPa 0,0 l/m 0 min 0 min 0,0 UV-I 178 W/m 10,5 km/h (2 Bft)
16.06.2014 16:58 16,4 C 15,0 C 87 % 1021,3 hPa 0,0 l/m 0 min 0 min 0,0 UV-I 190 W/m 12,6 km/h (3 Bft)
16.06.2014 17:00 16,4 C 15,0 C 86 % 1021,3 hPa 0,0 l/m 0 min 0 min 0,0 UV-I 208 W/m 14,6 km/h (3 Bft)
16.06.2014 17:02 16,4 C 15,0 C 86 % 1021,4 hPa 0,0 l/m 0 min 0 min 0,5 UV-I 269 W/m 20,9 km/h (4 Bft)
16.06.2014 17:04 16,5 C 15,6 C 86 % 1021,3 hPa 0,0 l/m 0 min 0 min 0,5 UV-I 305 W/m 16,7 km/h (3 Bft)
16.06.2014 17:06 16,6 C 15,6 C 86 % 1021,3 hPa 0,0 l/m 0 min 0 min 0,5 UV-I 305 W/m 23,0 km/h (4 Bft)
16.06.2014 17:08 16,7 C 15,6 C 85 % 1021,3 hPa 0,0 l/m 0 min 0 min 0,6 UV-I 271 W/m 16,7 km/h (3 Bft)
16.06.2014 17:10 16,7 C 16,1 C 86 % 1021,3 hPa 0,0 l/m 0 min 0 min 0,6 UV-I 275 W/m 18,8 km/h (3 Bft)
16.06.2014 17:12 16,8 C 16,1 C 86 % 1021,3 hPa 0,0 l/m 0 min 0 min 0,7 UV-I 301 W/m 16,7 km/h (3 Bft)
16.06.2014 17:14 16,8 C 16,1 C 85 % 1021,3 hPa 0,0 l/m 0 min 0 min 0,7 UV-I 338 W/m 27,2 km/h (4 Bft)
16.06.2014 17:16 16,8 C 16,1 C 83 % 1021,3 hPa 0,0 l/m 2 min 0 min 0,7 UV-I 363 W/m 27,2 km/h (4 Bft)
16.06.2014 17:18 16,8 C 16,1 C 81 % 1021,2 hPa 0,0 l/m 2 min 0 min 0,6 UV-I 469 W/m 23,0 km/h (4 Bft)
16.06.2014 17:20 16,9 C 16,1 C 80 % 1021,3 hPa 0,0 l/m 2 min 0 min 0,6 UV-I 370 W/m 25,1 km/h (4 Bft)
16.06.2014 17:22 16,9 C 16,1 C 79 % 1021,3 hPa 0,0 l/m 2 min 0 min 0,7 UV-I 352 W/m 18,8 km/h (3 Bft)
16.06.2014 17:24 17,0 C 16,1 C 79 % 1021,3 hPa 0,0 l/m 2 min 0 min 0,7 UV-I 419 W/m 23,0 km/h (4 Bft)
16.06.2014 17:26 17,2 C 16,1 C 79 % 1021,2 hPa 0,0 l/m 2 min 0 min 0,7 UV-I 406 W/m 25,1 km/h (4 Bft)
16.06.2014 17:28 17,2 C 16,1 C 78 % 1021,2 hPa 0,0 l/m 2 min 0 min 0,7 UV-I 455 W/m 18,8 km/h (3 Bft)
16.06.2014 17:30 17,3 C 16,1 C 76 % 1021,3 hPa 0,0 l/m 2 min 0 min 0,6 UV-I 688 W/m 27,2 km/h (4 Bft)
16.06.2014 17:32 17,4 C 16,1 C 76 % 1021,1 hPa 0,0 l/m 2 min 0 min 0,6 UV-I 691 W/m 25,1 km/h (4 Bft)
16.06.2014 17:34 17,6 C 16,1 C 76 % 1021,1 hPa 0,0 l/m 2 min 0 min 0,6 UV-I 704 W/m 18,8 km/h (3 Bft)
16.06.2014 17:36 17,8 C 16,7 C 76 % 1021,1 hPa 0,0 l/m 2 min 0 min 0,6 UV-I 760 W/m 18,8 km/h (3 Bft)
16.06.2014 17:38 18,1 C 17,2 C 76 % 1021,2 hPa 0,0 l/m 2 min 0 min 0,6 UV-I 689 W/m 23,0 km/h (4 Bft)
16.06.2014 17:40 18,0 C 17,8 C 74 % 1021,2 hPa 0,0 l/m 2 min 0 min 0,6 UV-I 689 W/m 25,1 km/h (4 Bft)
16.06.2014 17:42 18,0 C 18,3 C 75 % 1021,2 hPa 0,0 l/m 2 min 0 min 0,5 UV-I 331 W/m 16,7 km/h (3 Bft)
16.06.2014 17:44 17,9 C 18,3 C 74 % 1021,2 hPa 0,0 l/m 2 min 0 min 0,5 UV-I 338 W/m 25,1 km/h (4 Bft)
16.06.2014 17:46 17,8 C 17,8 C 74 % 1021,2 hPa 0,0 l/m 2 min 0 min 0,0 UV-I 346 W/m 23,0 km/h (4 Bft)
16.06.2014 17:48 17,7 C 18,3 C 75 % 1021,2 hPa 0,0 l/m 2 min 0 min 0,0 UV-I 366 W/m 16,7 km/h (3 Bft)
16.06.2014 17:50 17,8 C 17,8 C 75 % 1021,2 hPa 0,0 l/m 2 min 0 min 0,0 UV-I 317 W/m 25,1 km/h (4 Bft)
16.06.2014 17:52 17,7 C 17,8 C 74 % 1021,2 hPa 0,0 l/m 2 min 0 min 0,0 UV-I 304 W/m 20,9 km/h (4 Bft)
16.06.2014 17:54 17,7 C 17,8 C 75 % 1021,2 hPa 0,0 l/m 2 min 0 min 0,0 UV-I 352 W/m 23,0 km/h (4 Bft)
16.06.2014 17:56 17,7 C 17,8 C 75 % 1021,2 hPa 0,0 l/m 2 min 0 min 0,0 UV-I 346 W/m 31,4 km/h (5 Bft)
16.06.2014 17:58 17,6 C 17,2 C 74 % 1021,1 hPa 0,0 l/m 0 min 0 min 0,0 UV-I 289 W/m 25,1 km/h (4 Bft)
16.06.2014 18:00 17,5 C 17,2 C 75 % 1021,1 hPa 0,0 l/m 0 min 0 min 0,0 UV-I 275 W/m 25,1 km/h (4 Bft)
16.06.2014 18:02 17,6 C 17,2 C 75 % 1021,1 hPa 0,0 l/m 2 min 0 min 0,0 UV-I 338 W/m 23,0 km/h (4 Bft)
16.06.2014 18:06 17,6 C 17,2 C 75 % 1021,1 hPa 0,0 l/m 2 min 0 min 0,0 UV-I 457 W/m 27,2 km/h (4 Bft)
16.06.2014 18:08 17,6 C 17,2 C 75 % 1021,1 hPa 0,0 l/m 0 min 0 min 0,0 UV-I 238 W/m 20,9 km/h (4 Bft)
16.06.2014 18:10 17,6 C 17,2 C 75 % 1021,0 hPa 0,0 l/m 0 min 0 min 0,0 UV-I 238 W/m 18,8 km/h (3 Bft)
16.06.2014 18:12 17,7 C 17,2 C 76 % 1021,0 hPa 0,0 l/m 0 min 0 min 0,0 UV-I 208 W/m 25,1 km/h (4 Bft)
16.06.2014 18:14 17,6 C 17,2 C 75 % 1021,0 hPa 0,0 l/m 0 min 0 min 0,0 UV-I 246 W/m 29,3 km/h (5 Bft)
16.06.2014 18:16 17,5 C 17,2 C 75 % 1021,0 hPa 0,0 l/m 0 min 0 min 0,0 UV-I 240 W/m 29,3 km/h (5 Bft)
16.06.2014 18:18 17,4 C 17,2 C 75 % 1021,0 hPa 0,0 l/m 0 min 0 min 0,0 UV-I 243 W/m 27,2 km/h (4 Bft)
16.06.2014 18:20 17,5 C 17,2 C 75 % 1020,9 hPa 0,0 l/m 0 min 0 min 0,0 UV-I 202 W/m 18,8 km/h (3 Bft)
16.06.2014 18:22 17,4 C 17,2 C 75 % 1021,0 hPa 0,0 l/m 0 min 0 min 0,0 UV-I 179 W/m 20,9 km/h (4 Bft)
16.06.2014 18:24 17,4 C 16,7 C 76 % 1021,0 hPa 0,0 l/m 0 min 0 min 0,0 UV-I 158 W/m 20,9 km/h (4 Bft)
16.06.2014 18:26 17,3 C 16,7 C 76 % 1021,0 hPa 0,0 l/m 0 min 0 min 0,0 UV-I 155 W/m 14,6 km/h (3 Bft)
16.06.2014 18:28 17,4 C 16,7 C 77 % 1021,0 hPa 0,0 l/m 0 min 0 min 0,0 UV-I 162 W/m 18,8 km/h (3 Bft)
16.06.2014 18:30 17,4 C 17,2 C 76 % 1021,0 hPa 0,0 l/m 0 min 0 min 0,0 UV-I 182 W/m 14,6 km/h (3 Bft)
16.06.2014 18:32 17,4 C 17,2 C 76 % 1021,0 hPa 0,0 l/m 0 min 0 min 0,0 UV-I 205 W/m 18,8 km/h (3 Bft)
16.06.2014 18:34 17,4 C 17,2 C 76 % 1021,0 hPa 0,0 l/m 0 min 0 min 0,0 UV-I 216 W/m 12,6 km/h (3 Bft)
16.06.2014 18:36 17,4 C 17,2 C 75 % 1021,0 hPa 0,0 l/m 0 min 0 min 0,0 UV-I 227 W/m 16,7 km/h (3 Bft)
16.06.2014 18:38 17,4 C 17,2 C 75 % 1021,0 hPa 0,0 l/m 0 min 0 min 0,0 UV-I 224 W/m 20,9 km/h (4 Bft)
16.06.2014 18:40 17,4 C 17,2 C 73 % 1021,1 hPa 0,0 l/m 0 min 0 min 0,0 UV-I 238 W/m 27,2 km/h (4 Bft)
16.06.2014 18:42 17,4 C 17,2 C 73 % 1021,0 hPa 0,0 l/m 0 min 0 min 0,0 UV-I 221 W/m 25,1 km/h (4 Bft)
16.06.2014 18:44 17,5 C 17,2 C 72 % 1021,0 hPa 0,0 l/m 0 min 0 min 0,0 UV-I 210 W/m 23,0 km/h (4 Bft)
16.06.2014 18:46 17,5 C 17,2 C 72 % 1021,0 hPa 0,0 l/m 0 min 0 min 0,0 UV-I 200 W/m 20,9 km/h (4 Bft)
16.06.2014 18:48 17,4 C 17,2 C 71 % 1021,1 hPa 0,0 l/m 0 min 0 min 0,0 UV-I 198 W/m 29,3 km/h (5 Bft)
16.06.2014 18:50 17,4 C 17,2 C 71 % 1021,0 hPa 0,0 l/m 0 min 0 min 0,0 UV-I 197 W/m 27,2 km/h (4 Bft)
16.06.2014 18:52 17,3 C 16,7 C 71 % 1021,0 hPa 0,0 l/m 0 min 0 min 0,0 UV-I 200 W/m 23,0 km/h (4 Bft)
16.06.2014 18:54 17,3 C 17,2 C 72 % 1021,0 hPa 0,0 l/m 0 min 0 min 0,0 UV-I 197 W/m 18,8 km/h (3 Bft)
16.06.2014 18:56 17,3 C 17,2 C 72 % 1021,0 hPa 0,0 l/m 0 min 0 min 0,0 UV-I 162 W/m 18,8 km/h (3 Bft)
16.06.2014 18:58 17,3 C 16,7 C 73 % 1021,0 hPa 0,0 l/m 0 min 0 min 0,0 UV-I 120 W/m 23,0 km/h (4 Bft)
16.06.2014 19:00 17,3 C 16,7 C 74 % 1021,0 hPa 0,0 l/m 0 min 0 min 0,0 UV-I 113 W/m 20,9 km/h (4 Bft)
16.06.2014 19:02 17,3 C 16,7 C 74 % 1021,0 hPa 0,0 l/m 0 min 0 min 0,0 UV-I 113 W/m 20,9 km/h (4 Bft)
16.06.2014 19:04 17,2 C 16,7 C 74 % 1021,0 hPa 0,0 l/m 0 min 0 min 0,0 UV-I 109 W/m 20,9 km/h (4 Bft)
16.06.2014 19:06 17,2 C 16,7 C 73 % 1021,0 hPa 0,0 l/m 0 min 0 min 0,0 UV-I 101 W/m 23,0 km/h (4 Bft)
16.06.2014 19:08 17,2 C 16,7 C 74 % 1021,0 hPa 0,0 l/m 0 min 0 min 0,0 UV-I 95 W/m 10,5 km/h (2 Bft)
16.06.2014 19:10 17,1 C 16,7 C 74 % 1021,0 hPa 0,0 l/m 0 min 0 min 0,0 UV-I 95 W/m 23,0 km/h (4 Bft)
16.06.2014 19:12 17,1 C 16,1 C 73 % 1020,9 hPa 0,0 l/m 0 min 0 min 0,0 UV-I 95 W/m 20,9 km/h (4 Bft)
16.06.2014 19:14 17,0 C 16,1 C 74 % 1020,9 hPa 0,0 l/m 0 min 0 min 0,0 UV-I 95 W/m 20,9 km/h (4 Bft)
16.06.2014 19:16 17,0 C 16,1 C 74 % 1020,9 hPa 0,0 l/m 0 min 0 min 0,0 UV-I 85 W/m 18,8 km/h (3 Bft)
16.06.2014 19:18 17,0 C 16,1 C 74 % 1020,9 hPa 0,0 l/m 0 min 0 min 0,0 UV-I 83 W/m 25,1 km/h (4 Bft)
16.06.2014 19:20 16,9 C 16,1 C 74 % 1021,0 hPa 0,0 l/m 0 min 0 min 0,0 UV-I 83 W/m 18,8 km/h (3 Bft)
16.06.2014 19:22 16,9 C 16,1 C 74 % 1021,0 hPa 0,0 l/m 0 min 0 min 0,0 UV-I 80 W/m 16,7 km/h (3 Bft)
16.06.2014 19:24 16,9 C 16,1 C 75 % 1021,0 hPa 0,0 l/m 0 min 0 min 0,0 UV-I 79 W/m 12,6 km/h (3 Bft)
16.06.2014 19:26 16,9 C 16,1 C 74 % 1021,0 hPa 0,0 l/m 0 min 0 min 0,0 UV-I 79 W/m 18,8 km/h (3 Bft)
16.06.2014 19:28 16,9 C 16,1 C 75 % 1021,0 hPa 0,0 l/m 0 min 0 min 0,0 UV-I 83 W/m 16,7 km/h (3 Bft)
16.06.2014 19:30 16,8 C 16,1 C 74 % 1021,0 hPa 0,0 l/m 0 min 0 min 0,0 UV-I 89 W/m 23,0 km/h (4 Bft)
16.06.2014 19:32 16,8 C 16,1 C 74 % 1021,0 hPa 0,0 l/m 0 min 0 min 0,0 UV-I 97 W/m 18,8 km/h (3 Bft)
16.06.2014 19:34 16,8 C 16,1 C 75 % 1021,0 hPa 0,0 l/m 0 min 0 min 0,0 UV-I 101 W/m 18,8 km/h (3 Bft)
16.06.2014 19:36 16,8 C 16,1 C 75 % 1021,0 hPa 0,0 l/m 0 min 0 min 0,0 UV-I 104 W/m 12,6 km/h (3 Bft)
16.06.2014 19:38 16,9 C 16,1 C 75 % 1020,9 hPa 0,0 l/m 0 min 0 min 0,0 UV-I 112 W/m 12,6 km/h (3 Bft)
16.06.2014 19:40 16,9 C 16,1 C 76 % 1020,9 hPa 0,0 l/m 0 min 0 min 0,0 UV-I 107 W/m 8,4 km/h (2 Bft)
16.06.2014 19:42 16,9 C 16,1 C 75 % 1020,9 hPa 0,0 l/m 0 min 0 min 0,0 UV-I 97 W/m 12,6 km/h (3 Bft)
16.06.2014 19:44 16,9 C 16,1 C 75 % 1020,9 hPa 0,0 l/m 0 min 0 min 0,0 UV-I 89 W/m 14,6 km/h (3 Bft)
16.06.2014 19:46 16,9 C 16,1 C 75 % 1021,0 hPa 0,0 l/m 0 min 0 min 0,0 UV-I 77 W/m 16,7 km/h (3 Bft)
16.06.2014 19:48 16,9 C 16,1 C 75 % 1020,9 hPa 0,0 l/m 0 min 0 min 0,0 UV-I 69 W/m 14,6 km/h (3 Bft)
16.06.2014 19:50 16,9 C 16,1 C 76 % 1021,0 hPa 0,0 l/m 0 min 0 min 0,0 UV-I 61 W/m 10,5 km/h (2 Bft)
16.06.2014 19:52 16,8 C 16,1 C 76 % 1021,0 hPa 0,0 l/m 0 min 0 min 0,0 UV-I 51 W/m 16,7 km/h (3 Bft)
16.06.2014 19:54 16,8 C 16,1 C 76 % 1021,0 hPa 0,0 l/m 0 min 0 min 0,0 UV-I 46 W/m 12,6 km/h (3 Bft)
16.06.2014 19:56 16,8 C 15,6 C 76 % 1021,0 hPa 0,0 l/m 0 min 0 min 0,0 UV-I 43 W/m 18,8 km/h (3 Bft)
16.06.2014 19:58 16,7 C 15,6 C 76 % 1021,0 hPa 0,0 l/m 0 min 0 min 0,0 UV-I 43 W/m 23,0 km/h (4 Bft)
16.06.2014 20:00 16,7 C 15,6 C 76 % 1021,0 hPa 0,0 l/m 0 min 0 min 0,0 UV-I 46 W/m 16,7 km/h (3 Bft)
16.06.2014 20:02 16,7 C 15,6 C 76 % 1021,0 hPa 0,0 l/m 0 min 0 min 0,0 UV-I 61 W/m 16,7 km/h (3 Bft)
16.06.2014 20:04 16,7 C 15,6 C 76 % 1021,0 hPa 0,0 l/m 0 min 0 min 0,0 UV-I 71 W/m 14,6 km/h (3 Bft)
16.06.2014 20:06 16,7 C 15,6 C 76 % 1021,0 hPa 0,0 l/m 0 min 0 min 0,0 UV-I 80 W/m 18,8 km/h (3 Bft)
16.06.2014 20:08 16,7 C 15,6 C 76 % 1021,0 hPa 0,0 l/m 0 min 0 min 0,0 UV-I 79 W/m 16,7 km/h (3 Bft)
16.06.2014 20:10 16,7 C 16,1 C 77 % 1021,0 hPa 0,0 l/m 0 min 0 min 0,0 UV-I 75 W/m 10,5 km/h (2 Bft)
16.06.2014 20:12 16,7 C 16,1 C 76 % 1021,1 hPa 0,0 l/m 0 min 0 min 0,0 UV-I 80 W/m 20,9 km/h (4 Bft)
16.06.2014 20:14 16,7 C 16,1 C 76 % 1021,0 hPa 0,0 l/m 0 min 0 min 0,0 UV-I 89 W/m 16,7 km/h (3 Bft)
16.06.2014 20:16 16,7 C 16,1 C 76 % 1021,0 hPa 0,0 l/m 0 min 0 min 0,0 UV-I 87 W/m 10,5 km/h (2 Bft)
16.06.2014 20:18 16,7 C 16,1 C 77 % 1021,0 hPa 0,0 l/m 0 min 0 min 0,0 UV-I 85 W/m 12,6 km/h (3 Bft)
16.06.2014 20:20 16,7 C 16,1 C 77 % 1021,0 hPa 0,0 l/m 0 min 0 min 0,0 UV-I 79 W/m 10,5 km/h (2 Bft)
16.06.2014 20:22 16,7 C 16,1 C 77 % 1021,0 hPa 0,0 l/m 0 min 0 min 0,0 UV-I 91 W/m 16,7 km/h (3 Bft)
16.06.2014 20:24 16,7 C 16,1 C 76 % 1020,9 hPa 0,0 l/m 0 min 0 min 0,0 UV-I 77 W/m 14,6 km/h (3 Bft)
16.06.2014 20:26 16,7 C 16,1 C 76 % 1021,0 hPa 0,0 l/m 0 min 0 min 0,0 UV-I 75 W/m 14,6 km/h (3 Bft)
16.06.2014 20:28 16,7 C 15,6 C 77 % 1020,9 hPa 0,0 l/m 0 min 0 min 0,0 UV-I 69 W/m 12,6 km/h (3 Bft)
16.06.2014 20:30 16,7 C 15,6 C 77 % 1020,8 hPa 0,0 l/m 0 min 0 min 0,0 UV-I 69 W/m 16,7 km/h (3 Bft)
16.06.2014 20:32 16,6 C 15,6 C 77 % 1020,9 hPa 0,0 l/m 0 min 0 min 0,0 UV-I 75 W/m 12,6 km/h (3 Bft)
16.06.2014 20:34 16,6 C 15,6 C 77 % 1020,8 hPa 0,0 l/m 0 min 0 min 0,0 UV-I 75 W/m 12,6 km/h (3 Bft)
16.06.2014 20:36 16,6 C 15,6 C 77 % 1020,8 hPa 0,0 l/m 0 min 0 min 0,0 UV-I 72 W/m 12,6 km/h (3 Bft)
16.06.2014 20:38 16,6 C 15,6 C 77 % 1020,8 hPa 0,0 l/m 0 min 0 min 0,0 UV-I 62 W/m 10,5 km/h (2 Bft)
16.06.2014 20:40 16,6 C 15,6 C 77 % 1020,8 hPa 0,0 l/m 0 min 0 min 0,0 UV-I 69 W/m 12,6 km/h (3 Bft)
16.06.2014 20:42 16,5 C 15,6 C 77 % 1020,9 hPa 0,0 l/m 0 min 0 min 0,0 UV-I 51 W/m 10,5 km/h (2 Bft)
16.06.2014 20:44 16,4 C 15,6 C 77 % 1020,9 hPa 0,0 l/m 0 min 0 min 0,0 UV-I 64 W/m 12,6 km/h (3 Bft)
16.06.2014 20:46 16,4 C 15,6 C 77 % 1020,9 hPa 0,0 l/m 0 min 0 min 0,0 UV-I 72 W/m 12,6 km/h (3 Bft)
16.06.2014 20:48 16,4 C 15,6 C 77 % 1020,9 hPa 0,0 l/m 0 min 0 min 0,0 UV-I 67 W/m 10,5 km/h (2 Bft)
16.06.2014 20:50 16,4 C 15,6 C 78 % 1020,9 hPa 0,0 l/m 0 min 0 min 0,0 UV-I 59 W/m 12,6 km/h (3 Bft)
16.06.2014 20:52 16,3 C 15,6 C 78 % 1020,9 hPa 0,0 l/m 0 min 0 min 0,0 UV-I 64 W/m 10,5 km/h (2 Bft)
16.06.2014 20:54 16,3 C 15,6 C 78 % 1020,9 hPa 0,0 l/m 0 min 0 min 0,0 UV-I 62 W/m 8,4 km/h (2 Bft)
16.06.2014 20:56 16,3 C 15,0 C 79 % 1020,9 hPa 0,0 l/m 0 min 0 min 0,0 UV-I 51 W/m 10,5 km/h (2 Bft)
16.06.2014 20:58 16,3 C 15,0 C 79 % 1020,9 hPa 0,0 l/m 0 min 0 min 0,0 UV-I 51 W/m 10,5 km/h (2 Bft)
16.06.2014 21:00 16,3 C 15,0 C 79 % 1020,9 hPa 0,0 l/m 0 min 0 min 0,0 UV-I 53 W/m 10,5 km/h (2 Bft)
16.06.2014 21:02 16,3 C 15,6 C 79 % 1020,9 hPa 0,0 l/m 2 min 0 min 0,0 UV-I 62 W/m 8,4 km/h (2 Bft)
16.06.2014 21:04 16,3 C 15,6 C 79 % 1020,9 hPa 0,0 l/m 2 min 0 min 0,0 UV-I 67 W/m 12,6 km/h (3 Bft)
16.06.2014 21:06 16,3 C 15,6 C 79 % 1020,9 hPa 0,0 l/m 2 min 0 min 0,0 UV-I 62 W/m 12,6 km/h (3 Bft)
16.06.2014 21:08 16,3 C 15,6 C 79 % 1020,9 hPa 0,0 l/m 2 min 0 min 0,0 UV-I 46 W/m 0,0 km/h (0 Bft)
16.06.2014 21:10 16,3 C 15,0 C 80 % 1020,9 hPa 0,0 l/m 2 min 0 min 0,0 UV-I 43 W/m 12,6 km/h (3 Bft)
16.06.2014 21:12 16,3 C 15,0 C 80 % 1020,9 hPa 0,0 l/m 0 min 0 min 0,0 UV-I 37 W/m 8,4 km/h (2 Bft)
16.06.2014 21:14 16,3 C 15,0 C 80 % 1020,9 hPa 0,0 l/m 0 min 0 min 0,0 UV-I 30 W/m 10,5 km/h (2 Bft)
16.06.2014 21:16 16,3 C 15,0 C 79 % 1020,9 hPa 0,0 l/m 0 min 0 min 0,0 UV-I 29 W/m 10,5 km/h (2 Bft)
16.06.2014 21:18 16,2 C 15,0 C 80 % 1020,8 hPa 0,0 l/m 0 min 0 min 0,0 UV-I 26 W/m 4,2 km/h (1 Bft)
16.06.2014 21:20 16,2 C 15,0 C 79 % 1020,9 hPa 0,0 l/m 0 min 0 min 0,0 UV-I 24 W/m 12,6 km/h (3 Bft)
16.06.2014 21:22 16,2 C 15,0 C 80 % 1020,9 hPa 0,0 l/m 0 min 0 min 0,0 UV-I 24 W/m 14,6 km/h (3 Bft)
16.06.2014 21:24 16,2 C 15,0 C 79 % 1020,9 hPa 0,0 l/m 0 min 0 min 0,0 UV-I 21 W/m 14,6 km/h (3 Bft)
16.06.2014 21:26 16,2 C 15,0 C 79 % 1021,0 hPa 0,0 l/m 0 min 0 min 0,0 UV-I 18 W/m 10,5 km/h (2 Bft)
16.06.2014 21:28 16,2 C 15,0 C 79 % 1021,0 hPa 0,0 l/m 0 min 0 min 0,0 UV-I 18 W/m 10,5 km/h (2 Bft)
16.06.2014 21:30 16,2 C 15,0 C 79 % 1021,0 hPa 0,0 l/m 0 min 0 min 0,0 UV-I 16 W/m 14,6 km/h (3 Bft)
16.06.2014 21:32 16,1 C 15,0 C 79 % 1021,0 hPa 0,0 l/m 0 min 0 min 0,0 UV-I 14 W/m 12,6 km/h (3 Bft)
16.06.2014 21:34 16,1 C 15,0 C 79 % 1021,0 hPa 0,0 l/m 2 min 0 min 0,0 UV-I 14 W/m 12,6 km/h (3 Bft)
16.06.2014 21:36 16,1 C 15,0 C 79 % 1021,0 hPa 0,0 l/m 0 min 0 min 0,0 UV-I 10 W/m 14,6 km/h (3 Bft)
16.06.2014 21:38 16,1 C 15,0 C 79 % 1020,9 hPa 0,0 l/m 2 min 0 min 0,0 UV-I 10 W/m 10,5 km/h (2 Bft)
16.06.2014 21:40 16,0 C 15,0 C 79 % 1021,0 hPa 0,0 l/m 0 min 0 min 0,0 UV-I 8 W/m 10,5 km/h (2 Bft)
16.06.2014 21:42 15,9 C 14,4 C 79 % 1021,0 hPa 0,0 l/m 0 min 0 min 0,0 UV-I 8 W/m 14,6 km/h (3 Bft)
16.06.2014 21:44 15,9 C 14,4 C 79 % 1020,9 hPa 0,0 l/m 0 min 0 min 0,0 UV-I 8 W/m 16,7 km/h (3 Bft)
16.06.2014 21:46 15,9 C 14,4 C 79 % 1020,9 hPa 0,0 l/m 0 min 0 min 0,0 UV-I 6 W/m 18,8 km/h (3 Bft)
16.06.2014 21:48 15,8 C 14,4 C 79 % 1021,0 hPa 0,0 l/m 0 min 0 min 0,0 UV-I 6 W/m 10,5 km/h (2 Bft)
16.06.2014 21:50 15,8 C 14,4 C 79 % 1021,0 hPa 0,0 l/m 0 min 0 min 0,0 UV-I 6 W/m 12,6 km/h (3 Bft)
16.06.2014 21:52 15,8 C 14,4 C 79 % 1021,0 hPa 0,0 l/m 0 min 0 min 0,0 UV-I 6 W/m 14,6 km/h (3 Bft)
16.06.2014 21:54 15,7 C 14,4 C 79 % 1020,9 hPa 0,0 l/m 0 min 0 min 0,0 UV-I 0 W/m 16,7 km/h (3 Bft)
16.06.2014 21:56 15,7 C 14,4 C 79 % 1021,0 hPa 0,0 l/m 0 min 0 min 0,0 UV-I 0 W/m 14,6 km/h (3 Bft)
16.06.2014 21:58 15,7 C 14,4 C 79 % 1021,0 hPa 0,0 l/m 0 min 0 min 0,0 UV-I 0 W/m 12,6 km/h (3 Bft)
16.06.2014 22:00 15,6 C 14,4 C 79 % 1021,0 hPa 0,0 l/m 0 min 0 min 0,0 UV-I 0 W/m 18,8 km/h (3 Bft)
16.06.2014 22:02 15,6 C 14,4 C 79 % 1021,1 hPa 0,0 l/m 0 min 0 min 0,0 UV-I 0 W/m 16,7 km/h (3 Bft)
16.06.2014 22:04 15,6 C 14,4 C 79 % 1021,1 hPa 0,0 l/m 0 min 0 min 0,0 UV-I 0 W/m 16,7 km/h (3 Bft)
16.06.2014 22:06 15,6 C 14,4 C 79 % 1021,0 hPa 0,0 l/m 0 min 0 min 0,0 UV-I 0 W/m 12,6 km/h (3 Bft)
16.06.2014 22:08 15,6 C 14,4 C 79 % 1021,1 hPa 0,0 l/m 0 min 0 min 0,0 UV-I 0 W/m 18,8 km/h (3 Bft)
16.06.2014 22:10 15,6 C 14,4 C 79 % 1021,1 hPa 0,0 l/m 0 min 0 min 0,0 UV-I 0 W/m 10,5 km/h (2 Bft)
16.06.2014 22:12 15,6 C 14,4 C 79 % 1021,0 hPa 0,0 l/m 0 min 0 min 0,0 UV-I 0 W/m 12,6 km/h (3 Bft)
16.06.2014 22:14 15,5 C 14,4 C 78 % 1021,1 hPa 0,0 l/m 0 min 0 min 0,0 UV-I 0 W/m 10,5 km/h (2 Bft)
16.06.2014 22:16 15,5 C 13,9 C 78 % 1021,1 hPa 0,0 l/m 0 min 0 min 0,0 UV-I 0 W/m 10,5 km/h (2 Bft)
16.06.2014 22:18 15,4 C 13,9 C 78 % 1021,1 hPa 0,0 l/m 0 min 0 min 0,0 UV-I 0 W/m 14,6 km/h (3 Bft)
16.06.2014 22:20 15,4 C 13,9 C 78 % 1021,1 hPa 0,0 l/m 0 min 0 min 0,0 UV-I 0 W/m 10,5 km/h (2 Bft)
16.06.2014 22:22 15,4 C 13,9 C 78 % 1021,1 hPa 0,0 l/m 0 min 0 min 0,0 UV-I 0 W/m 10,5 km/h (2 Bft)
16.06.2014 22:24 15,4 C 13,9 C 78 % 1021,1 hPa 0,0 l/m 0 min 0 min 0,0 UV-I 0 W/m 12,6 km/h (3 Bft)
16.06.2014 22:26 15,3 C 13,9 C 79 % 1021,1 hPa 0,0 l/m 0 min 0 min 0,0 UV-I 0 W/m 10,5 km/h (2 Bft)
16.06.2014 22:28 15,3 C 13,9 C 79 % 1021,0 hPa 0,0 l/m 0 min 0 min 0,0 UV-I 0 W/m 10,5 km/h (2 Bft)
16.06.2014 22:30 15,3 C 13,9 C 79 % 1021,0 hPa 0,0 l/m 0 min 0 min 0,0 UV-I 0 W/m 10,5 km/h (2 Bft)
16.06.2014 22:32 15,3 C 13,9 C 78 % 1021,1 hPa 0,0 l/m 0 min 0 min 0,0 UV-I 0 W/m 10,5 km/h (2 Bft)
16.06.2014 22:34 15,2 C 13,9 C 79 % 1021,1 hPa 0,0 l/m 0 min 0 min 0,0 UV-I 0 W/m 12,6 km/h (3 Bft)
16.06.2014 22:36 15,2 C 13,9 C 79 % 1021,1 hPa 0,0 l/m 0 min 0 min 0,0 UV-I 0 W/m 2,1 km/h (1 Bft)
16.06.2014 22:38 15,2 C 13,9 C 79 % 1021,1 hPa 0,0 l/m 0 min 0 min 0,0 UV-I 0 W/m 16,7 km/h (3 Bft)
16.06.2014 22:40 15,2 C 13,9 C 79 % 1021,1 hPa 0,0 l/m 0 min 0 min 0,0 UV-I 0 W/m 16,7 km/h (3 Bft)
16.06.2014 22:42 15,2 C 13,9 C 79 % 1021,0 hPa 0,0 l/m 0 min 0 min 0,0 UV-I 0 W/m 10,5 km/h (2 Bft)
16.06.2014 22:44 15,2 C 13,9 C 79 % 1021,1 hPa 0,0 l/m 0 min 0 min 0,0 UV-I 0 W/m 14,6 km/h (3 Bft)
16.06.2014 22:46 15,2 C 13,9 C 79 % 1021,0 hPa 0,0 l/m 0 min 0 min 0,0 UV-I 0 W/m 10,5 km/h (2 Bft)
16.06.2014 22:48 15,2 C 13,9 C 79 % 1021,0 hPa 0,0 l/m 0 min 0 min 0,0 UV-I 0 W/m 14,6 km/h (3 Bft)
16.06.2014 22:50 15,2 C 13,9 C 79 % 1021,1 hPa 0,0 l/m 0 min 0 min 0,0 UV-I 0 W/m 16,7 km/h (3 Bft)
16.06.2014 22:52 15,2 C 13,9 C 79 % 1021,1 hPa 0,0 l/m 0 min 0 min 0,0 UV-I 0 W/m 14,6 km/h (3 Bft)
16.06.2014 22:54 15,2 C 13,9 C 78 % 1021,1 hPa 0,0 l/m 0 min 0 min 0,0 UV-I 0 W/m 14,6 km/h (3 Bft)
16.06.2014 22:56 15,2 C 13,9 C 78 % 1021,1 hPa 0,0 l/m 0 min 0 min 0,0 UV-I 0 W/m 18,8 km/h (3 Bft)
16.06.2014 22:58 15,3 C 13,9 C 78 % 1021,1 hPa 0,0 l/m 0 min 0 min 0,0 UV-I 0 W/m 16,7 km/h (3 Bft)
16.06.2014 23:00 15,3 C 13,9 C 78 % 1021,2 hPa 0,0 l/m 0 min 0 min 0,0 UV-I 0 W/m 16,7 km/h (3 Bft)
16.06.2014 23:02 15,3 C 13,9 C 78 % 1021,1 hPa 0,0 l/m 0 min 0 min 0,0 UV-I 0 W/m 16,7 km/h (3 Bft)
16.06.2014 23:04 15,3 C 13,9 C 78 % 1021,1 hPa 0,0 l/m 0 min 0 min 0,0 UV-I 0 W/m 16,7 km/h (3 Bft)
16.06.2014 23:06 15,3 C 13,9 C 78 % 1021,1 hPa 0,0 l/m 0 min 0 min 0,0 UV-I 0 W/m 18,8 km/h (3 Bft)
16.06.2014 23:08 15,3 C 13,9 C 78 % 1021,1 hPa 0,0 l/m 0 min 0 min 0,0 UV-I 0 W/m 18,8 km/h (3 Bft)
16.06.2014 23:10 15,3 C 13,9 C 78 % 1021,2 hPa 0,0 l/m 0 min 0 min 0,0 UV-I 0 W/m 18,8 km/h (3 Bft)
16.06.2014 23:12 15,3 C 13,9 C 78 % 1021,2 hPa 0,0 l/m 0 min 0 min 0,0 UV-I 0 W/m 14,6 km/h (3 Bft)
16.06.2014 23:14 15,3 C 13,9 C 78 % 1021,2 hPa 0,0 l/m 0 min 0 min 0,0 UV-I 0 W/m 14,6 km/h (3 Bft)
16.06.2014 23:16 15,3 C 13,9 C 78 % 1021,2 hPa 0,0 l/m 0 min 0 min 0,0 UV-I 0 W/m 10,5 km/h (2 Bft)
16.06.2014 23:18 15,2 C 13,9 C 78 % 1021,1 hPa 0,0 l/m 0 min 0 min 0,0 UV-I 0 W/m 12,6 km/h (3 Bft)
16.06.2014 23:20 15,2 C 13,9 C 78 % 1021,2 hPa 0,0 l/m 0 min 0 min 0,0 UV-I 0 W/m 4,2 km/h (1 Bft)
16.06.2014 23:22 15,2 C 13,9 C 78 % 1021,1 hPa 0,0 l/m 0 min 0 min 0,0 UV-I 0 W/m 16,7 km/h (3 Bft)
16.06.2014 23:24 15,2 C 13,9 C 78 % 1021,2 hPa 0,0 l/m 0 min 0 min 0,0 UV-I 0 W/m 12,6 km/h (3 Bft)
16.06.2014 23:26 15,2 C 13,9 C 78 % 1021,2 hPa 0,0 l/m 0 min 0 min 0,0 UV-I 0 W/m 10,5 km/h (2 Bft)
16.06.2014 23:28 15,2 C 13,9 C 79 % 1021,2 hPa 0,0 l/m 0 min 0 min 0,0 UV-I 0 W/m 8,4 km/h (2 Bft)
16.06.2014 23:30 15,2 C 13,9 C 79 % 1021,2 hPa 0,0 l/m 0 min 0 min 0,0 UV-I 0 W/m 10,5 km/h (2 Bft)
16.06.2014 23:32 15,2 C 13,9 C 79 % 1021,1 hPa 0,0 l/m 0 min 0 min 0,0 UV-I 0 W/m 12,6 km/h (3 Bft)
16.06.2014 23:34 15,1 C 13,9 C 79 % 1021,2 hPa 0,0 l/m 0 min 0 min 0,0 UV-I 0 W/m 10,5 km/h (2 Bft)
16.06.2014 23:36 15,1 C 13,9 C 79 % 1021,2 hPa 0,0 l/m 0 min 0 min 0,0 UV-I 0 W/m 10,5 km/h (2 Bft)
16.06.2014 23:38 15,1 C 13,9 C 79 % 1021,2 hPa 0,0 l/m 0 min 0 min 0,0 UV-I 0 W/m 10,5 km/h (2 Bft)
16.06.2014 23:40 15,1 C 13,9 C 79 % 1021,1 hPa 0,0 l/m 0 min 0 min 0,0 UV-I 0 W/m 12,6 km/h (3 Bft)
16.06.2014 23:42 15,1 C 13,9 C 80 % 1021,2 hPa 0,0 l/m 0 min 0 min 0,0 UV-I 0 W/m 4,2 km/h (1 Bft)
16.06.2014 23:44 15,1 C 13,9 C 80 % 1021,2 hPa 0,0 l/m 0 min 0 min 0,0 UV-I 0 W/m 12,6 km/h (3 Bft)
16.06.2014 23:46 15,1 C 13,9 C 80 % 1021,2 hPa 0,0 l/m 0 min 0 min 0,0 UV-I 0 W/m 16,7 km/h (3 Bft)
16.06.2014 23:48 15,1 C 13,9 C 80 % 1021,2 hPa 0,0 l/m 0 min 0 min 0,0 UV-I 0 W/m 14,6 km/h (3 Bft)
16.06.2014 23:50 15,0 C 13,9 C 80 % 1021,2 hPa 0,0 l/m 0 min 0 min 0,0 UV-I 0 W/m 12,6 km/h (3 Bft)
16.06.2014 23:52 15,0 C 13,9 C 80 % 1021,2 hPa 0,0 l/m 0 min 0 min 0,0 UV-I 0 W/m 4,2 km/h (1 Bft)
16.06.2014 23:54 15,0 C 13,9 C 80 % 1021,2 hPa 0,0 l/m 0 min 0 min 0,0 UV-I 0 W/m 2,1 km/h (1 Bft)
16.06.2014 23:56 15,0 C 13,9 C 80 % 1021,2 hPa 0,0 l/m 0 min 0 min 0,0 UV-I 0 W/m 12,6 km/h (3 Bft)
16.06.2014 23:58 14,9 C 13,9 C 80 % 1021,1 hPa 0,0 l/m 0 min 0 min 0,0 UV-I 0 W/m 18,8 km/h (3 Bft)
_ Min-Zeit 05:46 05:10 10:26 20:30 - - - - - 02:44
Minimum _ 9,8 C 8,9 C 70 % 1020,8 hPa - - - - - 0,0 km/h (0 Bft)
_ Max-Zeit 17:38 13:24 05:12 00:36 15:22 05:32 14:58 13:20 10:46 17:56
Maximum _ 18,1 C 20,0 C 95 % 1023,6 hPa 0,2 l/m 2 min 2 min 1,9 UV-I 932 W/m 31,4 km/h
NO (5 Bft)
Durchschnitt _ 14,6 C 14,2 C 81 % 1022,4 hPa #0,4 l/m #6:00 h #16 min. 1,0 UV-I 257 W/m 12,4 km/h (3 Bft)
© 2014 W. Hausmann